ECMWFNIL_500_rhum_000.txt.gz
RH
21 23 26 27 26 25 22 19 17 17 16 14 12 11 9 9 8 7 7 8 12 18 18 13 11 12 12 12 13 14 14 15 17 18 18 19 20 20 20 20 20 20
19 20 22 23 24 24 22 21 19 17 16 14 11 10 9 9 9 9 10 11 14 20 21 16 13 13 13 13 13 14 15 16 16 17 18 18 19 19 18 18 20 20
22 27 29 29 29 29 32 32 25 16 13 12 11 11 11 11 11 12 14 15 14 19 24 20 15 14 13 13 14 14 15 15 15 16 17 17 17 17 18 19 19 20
30 39 46 48 49 49 49 47 39 28 16 10 9 11 13 14 15 14 13 13 12 16 23 23 17 14 14 13 14 14 15 15 15 16 16 16 17 18 19 20 19 20
35 40 44 50 57 63 68 68 65 56 39 21 13 14 16 14 11 9 8 7 10 14 20 23 20 16 14 14 14 15 16 15 16 16 16 16 18 19 20 20 21 24
35 34 38 49 54 53 63 73 72 67 60 48 39 36 32 23 10 3 4 5 7 11 16 20 20 17 15 15 16 16 17 17 17 17 18 19 20 21 21 22 24 26
30 27 30 42 40 30 38 57 67 73 73 67 65 63 59 50 27 6 3 5 5 8 12 16 17 17 18 18 18 19 18 19 20 21 21 23 23 23 23 25 26 28
36 33 27 25 21 19 32 55 76 88 86 78 74 73 76 76 52 19 6 8 8 9 12 16 20 21 22 22 20 21 22 22 22 23 23 24 25 25 25 27 29 30
43 42 36 32 31 30 40 62 80 82 80 80 77 76 84 89 69 35 15 12 14 16 17 19 22 23 23 23 23 23 23 23 23 23 24 24 25 26 27 29 30 29
54 53 52 53 55 54 58 74 82 76 70 68 69 77 85 88 82 61 38 30 35 37 34 27 22 23 25 24 25 26 23 23 24 23 23 24 25 27 29 29 29 27
58 64 70 72 77 84 84 83 84 81 70 53 52 70 80 81 87 84 68 60 63 61 51 38 27 25 26 26 26 27 24 24 26 25 24 26 28 30 31 31 30 26
55 60 67 75 88 96 88 82 87 86 73 53 47 60 77 88 92 87 82 79 77 77 68 47 31 26 26 28 29 27 26 27 28 28 27 29 30 31 31 30 28 24
59 58 60 67 81 87 79 83 93 86 77 73 65 58 66 83 86 76 79 85 85 90 82 53 31 27 27 29 30 28 28 29 30 30 29 30 30 29 27 25 23 20
51 55 59 61 72 80 81 90 92 80 77 84 86 79 68 68 72 66 70 85 88 87 79 54 35 30 29 30 29 29 31 31 30 31 30 30 28 25 23 21 20 17
52 57 59 60 71 79 81 91 92 81 80 83 90 97 81 63 70 75 76 88 89 81 74 58 41 34 32 32 30 29 32 32 30 31 30 28 26 23 20 20 19 16
49 49 47 58 81 90 87 94 96 87 88 91 92 98 84 62 67 81 90 98 94 84 80 65 46 40 40 36 32 30 32 32 31 32 30 27 26 23 19 18 17 16
40 38 44 65 90 98 92 92 93 87 86 91 95 100 93 77 69 74 87 98 94 89 89 74 54 49 48 42 36 32 32 33 35 34 32 28 25 20 17 16 16 17
45 40 51 72 86 90 82 74 80 84 80 81 91 100 103 98 86 77 83 95 96 96 97 85 68 59 56 50 41 34 33 36 39 38 35 29 22 17 16 15 15 16
47 42 48 64 77 86 81 73 79 87 82 79 85 91 98 103 99 93 94 98 100 101 100 92 79 70 66 59 47 39 38 41 43 43 39 30 20 15 14 14 14 14
47 48 46 51 64 78 84 84 87 91 89 84 79 77 87 99 102 100 100 100 100 102 99 92 83 79 76 67 53 45 45 48 50 49 42 30 19 15 13 12 12 12
49 51 45 43 52 70 86 91 89 88 88 83 75 73 83 95 99 100 100 101 101 100 95 88 85 86 84 72 60 55 55 56 58 56 46 30 18 14 12 11 11 11
47 46 42 43 55 73 92 99 94 90 89 82 75 77 84 87 90 93 96 97 96 92 89 84 84 88 86 75 69 69 68 67 67 63 49 31 19 16 13 10 10 11
44 39 34 42 59 72 85 93 92 93 99 93 79 79 88 91 92 93 94 96 96 93 90 88 87 88 84 76 76 78 79 82 78 66 48 31 22 18 14 11 11 11
42 32 27 42 60 63 65 77 86 94 105 103 89 83 89 96 100 100 97 98 101 99 96 95 94 91 84 81 85 89 91 92 82 62 45 32 24 19 15 11 11 11
41 33 33 47 61 61 63 76 85 85 86 87 85 85 85 87 95 101 100 99 101 101 98 96 95 94 91 91 96 98 97 91 75 56 42 32 25 20 15 13 11 11
45 40 36 42 53 59 60 65 65 61 66 81 88 84 78 79 88 96 97 96 99 100 98 95 95 96 96 98 99 99 94 83 66 50 40 32 25 21 16 14 12 12

ECMWFNIL_500_rhum_006.txt.gz
RH
32 38 41 39 31 25 26 29 30 32 34 40 49 56 57 54 54 57 61 65 66 63 56 43 30 23 18 15 14 15 17 17 17 18 16 13 12 13 13 13 12 13
39 41 39 33 27 28 32 32 30 30 33 39 49 56 59 55 44 33 34 45 54 60 62 57 48 39 30 21 16 13 13 14 15 18 19 17 14 12 13 14 14 13
38 36 32 29 29 32 35 33 31 31 32 37 45 52 56 54 41 24 20 34 52 62 65 63 57 51 45 37 25 12 6 8 9 13 19 20 17 15 14 14 15 15
31 33 34 33 32 33 36 39 37 33 34 40 50 60 63 58 49 38 32 43 60 67 66 65 62 59 58 54 39 17 3 3 6 8 14 19 19 17 16 16 17 16
29 32 34 33 30 32 41 49 46 41 45 53 62 73 80 79 77 71 61 61 72 77 72 68 66 63 61 62 56 32 9 3 7 7 8 13 18 18 17 18 19 18
28 30 32 34 38 42 46 51 49 50 64 75 78 84 90 92 93 92 86 80 83 89 86 80 77 72 66 64 65 55 32 12 9 13 15 14 15 17 18 21 21 20
34 35 37 45 57 61 60 60 60 69 83 83 76 75 78 79 80 85 94 96 93 97 98 91 87 85 81 75 69 65 57 37 21 19 24 28 29 26 22 22 23 21
52 54 54 60 66 66 70 78 81 87 90 76 63 63 63 63 64 70 86 97 96 96 99 98 95 92 91 91 84 73 67 61 49 37 36 47 56 52 37 25 22 22
60 61 59 59 61 67 81 91 84 75 69 60 56 60 63 66 68 68 77 88 90 92 96 99 100 97 93 94 95 83 68 64 68 66 64 67 69 69 56 34 23 23
46 45 41 44 58 70 78 83 76 63 55 51 56 64 67 76 85 85 85 86 86 92 98 100 102 101 96 91 90 84 67 57 63 72 78 76 68 70 68 43 24 25
33 34 34 46 63 62 57 67 76 77 70 60 63 70 70 78 90 91 85 79 78 86 93 94 94 92 87 82 82 84 74 61 58 63 70 71 62 67 76 55 26 24
34 34 40 53 60 49 45 57 68 77 79 74 75 80 79 82 87 83 77 71 70 74 75 74 76 74 69 65 68 80 87 79 68 61 62 66 61 63 79 71 39 26
41 45 53 58 58 57 60 65 69 74 79 81 85 87 82 79 77 76 78 79 77 75 73 74 77 75 70 66 64 74 91 95 88 76 69 70 69 65 76 82 60 34
47 53 56 50 51 64 70 70 76 80 81 83 86 84 77 68 62 65 73 80 81 78 78 81 84 85 80 73 69 73 86 97 100 95 86 80 76 70 75 87 77 51
50 51 47 37 37 50 59 65 74 78 80 83 81 75 67 54 44 41 45 53 60 66 71 74 80 88 80 65 63 70 79 89 98 101 99 93 85 76 78 89 87 68
49 45 39 33 34 46 58 65 67 65 65 68 66 60 55 48 38 29 24 29 41 49 49 46 49 57 53 48 58 69 74 83 96 100 100 100 97 85 79 88 93 83
43 39 33 31 38 54 65 65 62 62 62 62 60 52 47 46 46 38 25 20 26 31 27 23 26 34 42 50 61 69 73 82 96 101 98 99 103 95 87 94 99 94
36 32 30 32 38 46 52 53 57 65 69 69 66 58 50 47 49 47 36 23 17 17 16 17 24 39 52 56 55 61 71 84 96 101 99 98 100 100 98 99 99 97
33 29 29 32 33 34 37 43 53 63 70 74 72 68 64 61 59 58 50 34 20 13 13 14 19 34 46 49 49 56 68 83 95 100 101 99 98 100 100 99 99 100
39 38 37 37 37 39 42 47 54 62 70 74 74 73 72 70 70 69 59 41 24 15 13 14 17 26 36 43 48 52 60 76 88 92 95 97 97 99 100 99 100 99
51 54 57 56 54 55 57 60 64 68 71 72 72 72 73 70 68 68 63 45 25 16 16 19 22 27 36 46 49 48 55 68 77 82 89 95 97 97 97 94 92 90
62 67 71 71 69 68 68 67 67 69 73 77 78 76 76 73 64 61 60 44 24 16 18 23 29 36 46 55 52 49 52 60 67 76 85 90 91 89 88 87 88 89
66 71 72 73 71 69 68 67 66 69 74 82 90 90 89 83 67 57 55 40 22 17 19 23 30 37 47 56 56 54 56 60 67 74 78 82 84 86 89 91 90 88
61 63 63 63 62 60 63 67 73 80 84 89 95 97 99 94 75 60 51 35 21 18 19 23 28 33 42 52 56 58 61 66 73 77 80 83 83 85 87 81 72 65
55 55 55 58 61 62 65 71 83 94 96 95 96 98 101 98 81 64 49 31 21 22 21 22 27 32 44 56 62 65 70 73 77 77 75 69 61 57 56 49 43 40
54 52 50 54 62 69 77 86 95 99 96 95 97 97 96 94 82 63 43 27 24 26 25 25 27 34 52 67 69 72 76 75 71 63 51 39 30 29 30 31 33 33

ECMWFNIL_500_rhum_009.txt.gz
RH
16 15 17 23 30 37 40 37 32 28 27 28 27 27 30 38 46 52 56 56 56 56 55 51 45 49 61 66 61 55 47 35 22 14 12 12 13 13 14 16 17 16
15 19 24 30 35 38 37 32 29 27 27 29 29 32 40 52 60 62 62 61 61 66 69 69 64 60 66 72 71 65 58 51 45 36 25 16 10 8 10 13 15 18
21 25 29 32 34 35 33 31 30 30 34 37 37 41 52 65 69 63 56 54 55 57 60 63 66 68 72 77 81 79 70 61 57 56 50 39 23 8 2 6 11 15
26 27 30 32 32 32 30 30 35 40 45 46 44 47 58 70 68 54 48 50 52 54 59 61 63 68 76 84 91 94 89 79 69 65 66 64 53 31 12 5 6 10
25 28 32 31 28 26 28 35 47 53 54 54 55 55 61 65 56 47 50 56 58 66 76 82 81 82 84 85 90 96 99 96 89 83 81 79 74 64 48 26 11 10
26 31 31 27 25 28 36 48 57 59 59 63 64 56 53 53 46 49 60 63 68 81 88 90 92 93 91 87 87 92 97 100 99 97 95 92 88 84 76 57 34 22
30 30 25 26 33 41 47 51 52 55 61 71 74 60 48 45 45 56 73 75 76 82 82 83 86 84 83 85 87 90 93 97 100 98 94 92 93 94 90 79 61 45
27 24 28 37 52 62 56 45 43 49 61 74 80 72 62 59 59 70 87 88 80 72 69 75 81 77 71 71 73 75 76 79 83 84 82 82 88 95 96 87 74 66
24 27 35 44 61 73 64 52 53 59 68 78 82 79 76 76 75 80 88 88 77 66 62 71 79 76 69 65 66 67 66 68 68 68 70 72 75 82 91 89 75 71
30 34 39 46 57 62 54 57 70 76 77 79 82 81 76 76 81 84 84 84 76 62 55 59 64 66 68 69 71 70 68 71 74 73 70 66 64 69 80 89 83 73
35 36 38 46 50 47 51 67 80 85 83 76 76 79 75 74 78 76 72 72 65 52 43 38 32 38 51 57 57 53 50 53 60 65 64 60 63 69 73 83 92 89
36 33 32 40 46 51 65 76 76 75 72 62 60 65 65 64 62 58 54 50 46 43 42 35 23 19 26 31 29 25 22 25 31 38 44 50 63 75 76 81 94 99
32 27 25 37 52 58 59 59 55 52 49 44 46 52 55 58 56 54 51 44 42 44 42 40 35 25 18 15 15 13 11 17 26 34 41 47 57 71 79 88 98 101
29 24 24 33 44 47 43 42 41 38 35 36 39 44 52 60 60 61 61 57 54 52 47 45 44 38 27 17 14 13 11 12 21 31 38 42 49 60 72 86 97 101
28 28 32 35 35 35 36 36 35 36 40 45 47 50 57 62 64 67 72 70 65 62 58 53 49 46 37 24 17 17 15 12 14 20 28 37 46 53 64 79 93 101
32 34 37 36 32 34 40 44 48 52 57 61 62 63 66 68 70 73 76 78 78 74 69 65 58 51 43 31 23 19 17 15 14 18 26 38 46 51 61 78 92 100
33 34 35 34 35 42 51 57 62 66 67 69 68 68 69 69 70 72 75 81 87 85 81 79 72 60 46 33 23 19 18 17 16 20 28 38 46 49 57 74 89 97
29 30 33 38 45 54 60 63 67 72 75 76 74 71 70 69 71 75 79 84 90 91 89 89 85 72 53 34 23 20 18 16 18 25 32 39 45 46 50 66 83 89
37 39 43 50 58 64 68 69 70 73 75 75 73 70 70 73 76 82 87 91 94 95 95 95 93 82 62 38 23 21 18 16 21 29 38 45 46 44 46 59 76 83
49 52 54 58 64 71 77 76 72 72 71 69 68 68 72 78 80 84 90 94 96 97 98 99 95 86 69 42 23 20 19 17 21 28 38 45 45 45 49 59 73 80
56 59 61 63 69 75 81 81 76 71 69 68 69 69 72 76 79 84 90 94 98 99 99 98 93 87 72 45 24 20 19 17 19 22 30 41 48 50 53 63 73 75
63 64 66 69 74 79 85 88 82 74 71 72 71 69 68 68 70 77 87 96 100 98 98 96 91 85 70 43 25 21 20 18 18 19 27 40 50 52 54 66 78 76
67 70 72 74 77 83 90 90 80 70 68 69 68 67 68 67 67 73 87 99 98 92 96 97 89 80 65 40 25 23 21 19 20 23 31 37 44 57 66 69 73 69
59 67 76 78 79 86 90 82 70 64 63 63 64 64 63 62 64 74 89 97 91 86 95 97 85 74 57 35 26 26 23 22 24 29 36 36 42 63 73 68 67 64
53 61 74 79 80 86 84 73 67 68 66 62 59 57 53 52 61 74 82 84 81 82 89 89 78 64 47 31 27 28 26 27 30 36 42 41 44 60 66 60 58 51
55 60 71 79 85 88 80 69 67 69 65 58 52 47 45 48 58 66 67 68 75 80 81 78 68 53 37 28 28 30 30 33 37 42 46 45 45 50 50 45 41 32

ECMWFNIL_500_rhum_012.txt.gz
RH
21 20 19 19 21 18 15 17 21 27 34 33 26 22 23 26 26 35 48 46 38 40 43 46 52 56 59 61 62 64 63 64 66 68 73 72 64 55 46 41 35 29
31 28 25 24 21 16 18 21 22 27 32 27 19 20 26 30 34 43 52 46 40 45 48 52 59 62 63 65 66 66 65 66 65 63 67 75 78 76 67 60 57 56
36 32 29 24 18 18 21 20 21 27 27 18 16 26 35 42 49 52 49 43 43 52 58 61 61 59 61 66 68 69 67 66 64 60 60 65 74 84 87 84 79 77
38 34 28 22 20 21 19 17 20 22 17 14 24 37 46 58 62 52 46 48 52 61 69 67 61 58 60 65 67 65 64 63 62 62 63 63 65 72 81 88 89 87
39 32 25 22 21 19 14 15 17 16 16 24 38 47 57 70 71 60 60 66 65 68 71 70 68 63 57 59 64 64 63 64 67 70 70 67 64 64 66 71 74 76
33 25 21 21 17 12 12 14 15 18 27 38 49 57 64 72 73 70 70 71 69 68 66 67 69 59 45 40 42 46 53 57 59 56 49 42 40 44 50 56 60 62
24 19 17 14 10 10 12 12 20 35 43 50 60 66 65 66 68 69 66 64 65 60 53 52 50 42 35 30 24 24 27 30 31 28 22 17 16 20 30 40 45 46
15 12 11 9 9 12 11 14 33 54 58 61 71 73 65 60 58 56 53 52 51 45 38 36 34 33 33 32 30 28 24 20 18 15 14 13 13 17 26 34 38 39
10 9 9 10 12 13 13 23 44 60 65 68 73 69 57 49 47 47 46 44 43 40 37 35 34 36 37 36 37 37 36 34 27 20 17 16 13 13 19 27 34 37
10 11 11 12 14 14 18 35 55 66 65 59 54 48 42 40 44 48 49 48 46 42 41 41 41 42 43 44 44 42 42 42 39 31 23 18 17 14 13 17 24 32
13 12 14 14 15 19 30 49 62 60 49 39 39 42 43 45 48 50 51 52 49 43 41 42 43 43 42 43 47 48 46 43 42 39 29 20 19 17 16 18 21 30
15 14 16 17 19 26 41 53 51 42 37 40 48 50 48 47 48 50 50 51 51 47 43 41 42 43 42 44 52 59 59 52 45 40 35 27 21 18 19 19 19 25
16 16 17 21 25 29 38 41 35 37 46 51 53 51 45 43 44 47 49 51 54 52 49 47 48 50 52 52 55 60 65 63 53 43 38 31 24 20 20 20 17 20
15 17 20 25 29 31 34 33 33 46 55 54 52 49 45 44 44 47 50 51 52 53 51 48 48 51 54 52 51 53 60 65 60 51 43 36 28 21 20 22 20 22
16 21 26 31 34 35 35 34 40 51 56 56 54 49 45 47 48 50 51 49 48 49 48 45 46 49 52 53 54 54 57 65 68 62 52 41 31 22 21 22 23 29
19 26 32 36 37 35 33 38 48 54 54 56 55 49 47 49 49 50 51 48 45 45 44 44 45 48 53 60 66 67 65 66 70 72 64 48 33 24 21 22 25 30
22 31 39 42 41 38 39 47 55 58 58 58 55 51 50 51 52 53 53 50 47 46 45 45 45 48 55 66 80 86 79 72 72 75 70 54 35 25 22 23 25 25
29 39 46 49 49 48 50 55 59 62 65 64 59 55 54 54 55 54 52 51 52 51 49 47 47 50 58 73 91 96 86 81 81 79 73 56 35 24 23 23 22 20
42 48 51 54 57 57 58 60 62 65 67 66 62 57 55 56 55 55 56 57 61 65 62 54 49 50 60 79 98 100 91 89 89 82 73 55 33 23 23 22 21 20
53 58 59 60 62 63 65 66 65 64 64 66 64 59 56 58 59 63 69 74 78 80 74 61 50 48 58 77 93 97 93 91 89 83 71 50 31 23 23 21 19 20
57 63 65 63 59 58 60 61 60 61 63 66 67 62 59 61 65 72 81 87 87 80 69 57 47 44 54 70 84 90 88 87 88 81 63 41 28 24 24 23 20 22
56 64 66 62 56 54 54 55 55 57 60 66 69 66 61 63 69 75 83 87 79 64 54 48 44 46 55 65 75 82 83 83 81 69 49 34 29 26 25 25 23 27
56 62 63 58 54 53 54 54 54 55 58 64 69 68 65 67 69 72 76 74 63 50 45 46 47 50 54 58 63 69 71 70 62 48 36 30 28 28 28 28 28 33
57 59 58 55 52 52 53 55 57 58 59 63 70 72 73 72 68 65 65 61 54 47 45 46 47 45 43 42 42 43 45 43 38 32 29 27 27 28 30 31 34 37
60 59 55 52 51 54 57 60 64 67 68 73 79 82 83 79 70 62 60 59 56 48 42 41 39 33 29 27 26 25 26 27 27 27 26 27 28 31 33 34 36 39
62 57 53 52 53 58 64 71 74 73 73 79 86 88 86 81 72 64 60 60 57 48 40 37 32 27 25 24 23 23 25 26 28 28 28 29 32 33 35 36 37 40

ECMWFNIL_500_rhum_015.txt.gz
RH
7 8 10 13 17 19 20 22 21 19 17 18 26 32 28 29 39 47 50 51 47 45 52 60 59 54 56 58 51 49 53 54 57 59 56 48 40 33 32 33 36 43
15 14 17 23 27 29 29 26 22 19 16 19 27 29 29 38 49 54 55 52 49 55 60 58 55 52 55 55 44 36 36 37 39 38 33 27 20 16 14 14 16 21
34 31 31 35 37 37 33 28 22 17 16 21 26 27 34 48 54 55 58 57 57 60 58 54 51 48 47 43 35 29 25 24 23 21 19 18 16 15 15 14 13 14
41 43 44 44 42 39 34 27 19 16 19 23 23 29 42 50 51 54 60 61 59 54 51 49 42 37 36 33 29 28 27 25 24 22 22 23 23 21 19 18 17 16
29 38 43 42 39 37 31 22 16 17 20 23 28 37 43 46 51 57 59 56 51 46 43 38 32 29 30 30 29 30 30 29 28 26 25 26 27 27 25 22 20 19
18 28 35 35 34 31 23 16 14 17 22 31 39 40 41 51 58 55 49 44 41 39 36 33 31 30 30 31 32 30 30 30 30 29 30 30 30 30 30 27 23 21
18 25 28 27 25 20 14 13 14 19 32 44 48 47 55 63 57 44 38 35 33 33 33 33 32 31 31 31 29 26 25 25 25 27 30 34 36 36 35 32 28 24
18 21 21 18 15 13 12 14 16 26 42 51 55 60 65 58 43 35 33 29 27 29 30 30 29 30 30 29 28 28 28 27 27 28 31 37 41 42 41 37 33 30
12 14 13 11 11 13 14 17 21 31 45 54 59 59 51 40 33 32 30 27 27 28 29 30 30 33 38 39 39 39 38 38 38 39 42 45 47 48 47 43 41 39
15 16 13 12 14 16 17 21 27 36 48 56 54 44 35 31 30 29 29 30 32 33 34 37 41 47 53 56 54 50 48 47 46 47 49 51 50 50 49 48 49 49
21 20 15 14 17 19 22 27 34 46 53 50 41 34 31 29 28 28 29 31 35 40 44 47 53 56 56 56 55 52 49 47 45 45 46 47 48 47 47 47 50 53
25 22 17 17 20 23 26 29 39 50 51 42 36 34 31 28 27 27 29 32 38 44 48 49 50 49 48 49 52 52 48 43 42 40 39 43 48 50 48 45 46 54
23 20 18 20 24 26 27 29 35 42 42 40 38 34 29 27 27 28 31 36 39 41 44 44 44 44 44 45 50 53 49 43 40 38 39 45 54 60 59 55 57 67
19 17 18 20 24 27 28 31 33 36 41 44 40 33 30 28 29 33 35 36 37 39 42 44 46 47 48 49 53 54 48 42 40 40 42 50 61 68 68 70 77 81
16 16 18 20 25 28 32 35 34 37 45 46 39 34 32 31 34 38 39 40 41 42 44 48 50 51 51 52 50 46 42 39 38 41 45 52 62 69 70 76 84 83
15 16 19 22 26 29 32 33 32 36 43 44 41 38 36 36 40 43 46 49 49 46 46 48 51 52 51 48 43 39 38 38 37 40 45 52 60 66 69 77 83 80
15 18 20 23 25 28 31 31 30 37 43 45 45 46 46 48 50 53 54 54 51 48 47 48 50 53 50 46 43 40 39 38 39 41 46 52 57 62 68 77 81 77
18 19 20 24 29 37 42 41 40 43 47 49 51 52 54 55 54 54 53 52 52 51 52 53 54 56 55 51 46 42 39 39 39 41 44 47 52 58 67 77 78 70
20 22 25 34 44 51 53 52 51 51 51 53 53 54 54 52 51 51 51 51 54 56 59 61 63 64 62 56 49 42 38 38 38 37 38 41 45 53 61 67 64 54
24 29 38 49 55 57 56 55 54 53 53 53 53 53 53 52 52 52 50 51 54 58 62 64 67 70 67 60 53 43 37 36 34 30 30 31 34 38 41 42 39 33
28 38 49 56 58 57 57 55 53 52 53 53 52 53 55 55 54 52 50 50 53 60 65 65 66 68 67 63 57 45 36 33 30 26 24 24 24 24 24 25 24 24
33 46 53 56 57 58 57 56 54 53 52 52 53 56 59 57 54 53 52 53 61 74 78 73 68 65 64 66 61 47 37 32 28 26 25 23 23 23 22 23 24 24
33 45 52 55 58 59 58 58 57 54 52 52 55 61 63 58 55 56 58 63 77 88 85 75 69 63 61 65 63 51 40 35 31 29 29 28 27 26 25 26 27 27
35 42 48 55 60 63 63 63 62 58 54 54 59 64 63 61 61 62 63 71 85 91 85 75 67 60 57 61 64 56 44 39 38 36 34 33 30 28 27 27 28 28
45 44 46 55 64 68 70 70 66 59 55 57 63 64 64 66 68 63 60 70 82 87 84 76 66 59 57 58 64 63 51 42 42 41 38 35 32 29 27 27 28 29
52 47 51 59 66 70 72 73 67 57 56 62 65 65 68 71 68 60 56 66 81 85 79 72 65 62 61 60 65 69 58 45 43 43 39 36 32 28 27 27 28 28

ECMWFNIL_500_rhum_021.txt.gz
RH
38 34 28 19 13 10 8 8 7 7 7 8 12 20 24 21 19 19 20 31 43 45 45 51 55 56 55 50 38 29 27 26 23 21 22 27 31 31 31 30 28 27
41 39 36 30 21 14 10 8 10 10 10 13 19 27 27 22 19 17 21 35 43 45 52 58 56 54 52 43 31 27 27 25 21 21 26 31 32 32 32 30 28 26
42 43 41 37 31 23 17 14 14 14 15 20 29 34 30 23 18 16 24 36 40 46 57 57 52 50 45 36 29 27 25 21 19 23 27 29 29 29 30 30 29 28
40 42 44 43 39 36 31 25 19 17 20 29 36 37 32 24 17 18 27 35 40 51 58 53 47 44 37 31 27 23 19 17 18 21 24 26 27 28 29 29 29 29
36 38 41 43 43 43 40 33 27 25 29 37 41 40 33 22 16 22 30 36 45 53 53 48 42 37 32 28 22 17 15 15 19 22 26 28 28 28 27 26 27 28
30 31 33 37 39 41 41 38 35 35 38 41 42 39 31 19 17 26 33 41 50 51 47 42 36 32 28 23 18 16 17 20 25 29 32 33 31 29 27 26 26 27
24 23 24 27 30 34 38 41 41 41 42 43 40 36 26 17 20 30 37 46 52 49 42 38 32 27 24 21 19 21 23 28 32 36 38 37 33 30 28 27 27 27
20 17 16 17 20 25 31 36 39 41 44 43 40 32 20 16 25 35 41 50 54 48 41 36 29 25 24 23 25 26 30 35 39 43 43 39 35 33 30 28 28 28
19 14 12 11 13 16 22 28 32 39 46 47 39 25 15 19 32 40 45 53 54 47 39 32 27 25 26 28 30 32 37 42 45 45 43 39 38 35 32 29 28 27
20 13 10 10 11 14 18 26 33 42 50 46 32 18 14 24 35 42 50 54 50 41 34 29 26 27 30 33 36 41 45 46 46 47 48 48 45 40 35 31 28 25
23 14 11 11 14 20 27 33 38 45 46 36 23 15 17 29 40 47 52 50 42 34 29 28 29 31 35 39 44 48 50 48 49 52 55 57 55 46 40 36 31 26
33 19 14 15 17 23 32 37 36 36 33 25 19 17 22 35 47 52 49 42 35 30 29 30 32 36 42 47 50 52 51 51 54 57 57 63 66 57 46 42 37 31
43 29 19 19 21 21 25 27 26 24 22 20 19 19 27 43 54 54 46 38 33 31 32 34 39 45 50 52 52 51 51 52 55 57 58 65 74 69 55 48 45 39
48 39 26 22 23 23 21 17 16 17 17 19 20 19 31 51 60 53 43 36 34 34 37 42 48 53 54 53 52 50 50 52 54 57 59 64 74 76 64 53 50 47
47 42 33 27 24 25 25 19 15 15 15 18 20 21 37 56 59 49 40 37 36 39 44 50 54 55 54 54 52 50 51 54 54 57 61 66 75 79 69 57 53 52
45 40 34 31 26 25 27 26 20 15 16 19 19 24 41 56 55 45 39 38 40 45 50 52 52 53 55 55 54 55 57 57 55 57 61 68 75 77 68 60 56 54
49 41 34 32 31 27 26 28 26 20 17 19 19 25 41 54 51 42 37 40 46 49 50 51 50 53 57 57 58 63 65 61 58 59 63 68 72 72 66 61 59 55
53 49 41 34 32 30 26 26 29 25 20 20 19 24 39 50 47 39 38 44 50 51 50 51 52 52 55 58 63 68 69 64 61 64 69 70 70 68 65 62 59 56
58 55 49 41 35 32 28 26 28 27 23 21 20 24 35 44 42 37 39 47 53 53 54 54 52 51 54 61 68 71 69 66 66 70 72 71 69 66 64 63 62 60
62 60 55 48 40 35 31 27 26 26 25 23 22 24 29 35 37 35 39 50 56 56 58 56 51 51 58 66 72 74 70 67 70 75 75 72 70 68 66 65 63 62
61 63 58 50 44 39 34 29 26 26 26 25 24 23 24 30 33 33 40 52 57 58 59 55 51 55 65 73 77 77 72 68 70 74 76 76 74 72 72 72 70 68
54 57 56 50 46 43 39 33 28 26 26 25 24 22 23 26 28 33 44 55 60 62 61 55 54 61 71 78 81 80 76 71 70 71 72 76 78 76 77 77 77 75
52 48 49 49 49 48 45 39 32 27 26 25 24 22 22 23 26 38 52 59 61 64 62 57 58 65 74 81 84 83 80 75 73 71 70 73 76 75 78 83 82 75
61 53 50 51 51 51 51 45 37 31 28 26 23 23 24 28 36 49 57 60 61 63 62 60 61 68 76 82 84 83 80 77 77 73 70 74 77 76 81 91 88 73
72 65 61 58 56 56 57 53 43 35 32 27 25 30 35 41 51 58 60 60 61 62 63 63 65 72 78 80 82 81 78 78 78 73 72 78 81 77 82 92 87 70
72 68 67 65 62 61 61 59 51 42 35 30 31 40 49 53 57 61 62 62 61 64 68 69 70 75 77 77 79 77 74 74 72 70 75 80 77 76 84 90 83 68

ECMWFNIL_500_rhum_024.txt.gz
RH
38 40 36 24 14 9 6 5 5 5 5 6 6 7 11 18 24 26 24 21 19 20 28 39 45 51 58 60 59 52 39 32 30 27 25 24 24 25 26 27 26 25
32 37 42 40 29 18 10 6 6 5 5 6 6 7 10 19 27 30 27 22 18 19 27 40 49 56 60 59 56 48 37 31 29 25 22 22 24 27 29 28 27 26
31 36 43 46 40 31 21 12 7 6 6 6 7 8 9 19 29 33 31 24 18 19 26 40 53 60 60 56 51 43 35 31 27 20 18 21 25 29 31 30 29 29
31 36 43 47 46 42 36 25 13 8 7 7 7 9 10 18 29 35 34 25 17 19 25 38 53 59 57 52 45 38 33 28 21 16 19 24 29 33 34 33 30 29
30 34 40 44 46 45 44 38 24 14 11 9 8 9 10 17 29 37 37 27 17 19 27 40 52 55 53 47 39 33 29 23 18 19 24 29 34 38 37 35 31 28
27 31 36 41 43 44 44 42 36 26 21 15 12 10 10 18 32 40 39 29 18 18 30 44 50 50 46 41 34 30 25 20 20 24 29 34 40 43 42 40 35 29
26 28 30 33 37 39 40 41 40 35 30 24 20 15 13 23 37 41 39 30 18 19 34 45 48 45 41 36 31 27 23 22 25 28 31 38 46 50 51 47 39 32
27 27 26 26 27 29 33 37 39 37 34 30 26 22 21 31 42 42 38 29 18 21 36 45 46 43 38 33 30 26 24 26 29 30 34 41 48 52 55 52 44 37
31 29 27 24 21 20 22 27 33 36 36 35 34 32 33 41 47 43 36 26 19 25 37 44 47 43 36 32 29 26 27 29 31 33 36 42 46 49 53 54 50 43
35 34 31 26 21 18 16 16 21 28 34 38 40 43 46 49 50 44 34 24 21 29 39 46 48 43 35 31 29 28 31 34 34 36 37 40 43 47 51 53 53 49
43 42 39 33 25 21 21 18 16 19 26 31 36 45 51 52 51 44 31 23 27 35 43 48 48 41 33 30 30 32 36 38 39 39 38 37 40 45 49 54 57 56
49 49 52 52 42 33 29 25 21 20 24 26 30 41 51 53 50 41 26 24 34 42 45 47 44 37 32 31 33 38 42 44 43 40 36 34 36 41 46 52 57 57
53 55 62 67 64 54 41 29 24 25 28 32 36 44 50 50 45 34 23 24 35 43 46 44 39 34 33 35 39 44 48 48 44 38 34 33 35 39 45 49 51 51
56 59 64 68 70 66 52 38 30 27 28 32 38 43 47 44 37 26 19 21 29 38 42 39 35 34 35 40 45 49 52 49 42 36 35 36 38 43 47 47 47 47
57 60 62 64 66 63 54 46 39 33 31 29 30 33 34 32 27 20 17 17 22 31 37 35 34 36 40 46 51 52 50 45 39 35 36 40 44 46 47 48 48 48
59 60 62 62 62 60 56 50 41 37 35 32 30 28 25 22 19 17 16 16 18 26 32 33 34 38 44 50 53 51 47 42 38 35 36 43 46 46 48 50 49 50
59 61 62 62 61 60 58 53 45 40 38 36 34 31 28 25 20 16 16 16 17 23 28 32 35 40 47 53 53 48 44 42 39 36 38 44 46 46 48 50 53 58
61 61 61 61 61 58 57 55 50 45 41 38 35 32 30 30 27 22 19 17 18 21 25 29 34 42 50 54 53 47 43 43 41 37 41 48 49 47 46 49 53 58
67 65 63 62 61 57 56 56 53 51 48 44 40 36 31 29 28 26 22 20 20 22 25 29 35 44 53 55 52 46 44 46 43 39 45 52 54 51 48 46 46 52
71 70 69 66 63 61 61 59 57 57 55 50 45 41 35 29 27 27 25 23 22 24 27 29 34 45 54 56 53 47 46 50 46 43 49 56 58 57 55 50 48 56
68 69 69 69 67 66 65 63 62 61 58 53 49 46 43 35 29 28 27 25 24 25 28 29 34 46 54 56 54 51 51 53 51 48 55 62 64 63 63 60 59 65
68 69 70 72 73 71 67 63 62 62 59 54 51 52 50 41 34 29 27 26 25 26 28 28 32 45 56 58 58 57 56 56 55 55 61 68 71 69 67 67 68 70
73 72 72 75 79 79 75 68 61 58 58 56 55 58 56 47 39 33 29 29 28 27 29 28 32 45 56 60 62 63 62 59 58 58 63 72 75 70 67 69 72 71
77 76 76 76 79 81 82 79 67 58 58 60 59 62 62 55 45 37 33 31 30 30 30 30 34 45 55 60 65 68 64 60 58 57 63 73 76 69 64 67 74 74
79 78 78 76 76 77 82 84 76 63 60 64 64 66 68 62 51 43 38 33 31 32 32 32 33 42 53 61 67 69 65 62 60 58 64 75 76 66 62 69 75 74
74 74 76 76 75 77 81 84 80 69 63 65 67 68 70 66 58 52 45 37 34 31 31 31 31 40 55 65 69 71 68 65 63 61 68 78 75 63 62 73 76 72

ECMWFNIL_500_rhum_027.txt.gz
RH
34 34 31 25 17 11 8 6 5 5 6 5 6 6 7 8 9 10 14 22 27 28 22 15 16 25 34 43 48 49 46 39 33 33 29 22 18 20 24 27 29 29
37 37 38 39 35 27 17 12 9 7 6 6 5 6 6 7 9 9 14 22 28 31 27 18 14 20 30 42 48 48 44 37 33 32 26 21 22 25 27 30 33 33
31 32 35 39 42 40 33 27 22 14 9 7 5 6 7 8 8 9 14 21 28 32 31 22 14 17 27 40 47 46 42 35 32 29 24 22 26 27 29 33 38 37
34 34 35 38 42 45 44 40 33 25 16 10 8 7 8 8 8 9 12 20 28 32 33 26 17 15 23 35 44 44 39 34 30 27 23 24 28 29 32 38 43 42
39 37 36 37 41 46 48 46 40 33 24 18 14 13 10 9 8 9 10 17 27 34 36 30 19 16 21 31 39 40 35 31 28 25 24 27 30 31 37 45 50 48
45 41 37 36 39 44 49 50 46 40 34 27 24 21 17 12 9 9 9 13 25 35 38 34 23 17 22 29 36 36 33 29 26 24 25 28 30 34 42 51 55 52
47 41 36 34 35 39 46 50 49 46 40 34 32 29 24 18 12 10 10 11 22 35 40 36 25 18 23 30 34 35 31 27 25 25 27 29 30 36 47 55 56 53
47 37 32 31 32 33 38 43 46 47 45 40 37 33 28 24 19 15 13 11 20 35 42 37 26 20 25 31 35 35 32 28 26 27 29 31 32 39 50 56 54 50
46 34 30 31 30 29 29 31 34 38 41 41 40 37 33 29 24 21 19 16 22 36 43 38 26 21 27 34 36 35 32 29 27 28 31 33 37 43 49 51 48 42
44 33 33 34 33 31 28 25 24 24 25 27 31 34 36 34 31 28 26 23 29 39 44 38 26 21 28 36 36 35 33 30 28 30 33 36 40 43 44 44 42 37
43 34 37 39 39 37 31 25 20 16 15 15 16 20 25 29 31 32 33 33 38 44 46 39 25 20 27 34 36 35 33 31 29 31 34 37 39 40 39 40 39 37
41 37 42 47 50 49 46 40 33 27 22 18 16 15 16 19 22 26 30 36 41 45 46 39 25 18 24 31 34 34 32 31 31 32 35 37 38 37 36 37 38 40
41 40 49 54 56 58 59 57 51 45 40 35 29 25 22 21 22 23 24 28 34 40 44 38 24 16 21 29 32 32 31 31 31 33 35 37 37 36 35 37 40 41
42 45 53 56 57 58 59 58 55 52 51 46 38 33 30 28 26 25 25 26 29 35 39 34 21 13 18 27 31 31 31 31 31 33 35 37 36 35 35 38 42 42
43 48 54 57 57 57 58 60 60 57 53 48 42 38 36 33 30 28 26 25 25 28 29 25 17 12 17 28 33 32 31 30 30 33 36 37 36 36 36 39 44 44
45 48 53 56 58 59 61 64 65 61 57 53 50 46 40 36 33 31 28 27 25 24 22 19 16 14 19 29 34 32 30 29 29 33 38 39 37 37 38 40 45 49
48 49 52 55 57 58 60 64 65 64 62 59 56 53 49 45 40 34 30 28 26 25 23 20 18 16 21 30 34 32 29 28 29 33 38 40 39 38 38 41 46 53
52 53 54 55 56 56 58 61 63 64 64 61 58 56 54 53 49 41 35 31 27 26 25 24 22 19 21 28 33 32 28 27 29 32 36 41 41 38 38 41 47 55
53 54 56 55 55 55 56 59 60 61 63 62 60 58 56 57 55 48 42 39 33 27 26 27 27 23 21 26 33 34 29 26 28 30 35 41 41 38 38 41 48 56
59 58 59 58 58 58 58 59 61 62 62 60 58 58 57 60 60 54 47 44 38 31 28 29 29 27 24 24 31 35 31 27 28 29 32 38 41 39 38 42 50 56
65 64 63 61 61 61 61 62 63 65 65 62 60 59 60 62 62 58 52 49 44 38 33 30 29 29 27 24 29 35 33 28 27 27 28 33 39 41 40 43 51 57
67 70 70 67 64 63 63 65 67 68 68 66 64 63 64 64 63 60 56 55 53 46 38 33 31 30 29 26 27 33 35 30 26 26 27 29 35 41 43 45 51 59
71 73 72 70 69 68 67 67 69 70 71 72 70 66 64 63 63 62 60 60 59 53 45 39 36 33 31 29 28 31 34 31 26 26 27 27 32 39 43 46 51 59
72 72 72 73 73 74 73 72 73 72 72 73 72 69 66 63 61 61 62 62 61 58 53 46 40 36 33 30 29 30 32 31 27 26 27 27 32 38 44 49 53 58
69 71 74 76 75 75 75 74 74 72 71 71 71 70 71 71 66 60 57 60 63 64 61 53 46 41 36 33 31 30 31 31 27 25 26 29 34 39 45 52 55 57
68 70 71 74 75 76 76 75 75 75 73 71 71 70 71 74 75 68 60 59 64 67 66 62 56 48 41 37 34 31 31 32 29 27 28 32 37 42 48 55 57 58

ECMWFNIL_500_rhum_030.txt.gz
RH
3 3 3 3 3 4 4 4 5 5 5 5 5 5 6 7 8 8 9 9 13 21 27 29 26 19 13 16 25 35 42 42 35 26 22 18 14 17 22 23 27 31
7 8 9 9 8 7 6 7 7 7 6 5 5 5 5 6 6 8 9 9 11 18 26 31 30 24 16 14 22 32 40 42 37 28 21 17 15 18 23 24 29 35
18 22 25 25 25 23 20 19 17 16 13 9 6 5 6 6 6 7 8 9 10 15 24 30 32 29 21 14 18 29 39 42 38 30 21 17 17 20 25 26 31 38
31 34 36 36 37 36 36 35 32 29 26 21 15 11 8 7 6 7 7 9 10 12 20 28 32 33 27 18 16 25 37 41 39 32 23 18 18 22 26 28 33 40
29 31 32 32 33 33 35 38 40 40 38 34 30 24 17 12 9 8 7 8 9 11 15 23 31 34 32 23 15 20 32 39 39 34 25 19 19 23 28 30 35 40
31 33 34 34 34 33 33 35 38 40 41 41 40 35 29 23 16 11 7 7 9 10 12 17 27 34 35 28 17 17 29 38 39 35 28 21 20 24 29 32 36 40
41 41 42 41 41 40 38 37 36 37 40 42 42 42 38 33 27 19 12 9 8 9 10 12 21 31 36 33 22 16 26 37 39 36 30 23 21 25 30 34 37 39
45 44 44 45 45 43 39 36 35 35 38 39 41 44 43 40 37 30 22 15 11 10 11 11 16 27 36 36 27 17 23 35 39 36 31 25 22 25 30 36 39 39
46 45 46 48 49 44 36 32 31 32 35 37 40 43 44 44 42 39 33 27 20 18 17 15 16 23 34 39 31 19 21 34 39 37 31 26 23 25 30 37 39 39
46 45 48 52 50 41 32 29 27 28 30 32 34 36 38 39 40 39 38 36 32 29 27 24 22 24 32 40 36 23 19 31 39 37 31 25 23 25 30 37 40 39
46 46 50 54 49 38 31 29 28 27 26 24 24 23 23 23 23 24 25 26 29 31 32 30 28 28 32 39 39 27 18 27 37 38 32 25 22 24 29 36 39 40
46 48 56 59 49 37 33 32 31 28 24 20 17 15 14 13 13 13 14 16 19 22 25 28 28 28 31 36 38 29 18 22 34 38 33 25 22 23 28 35 38 40
48 53 63 62 48 38 38 39 37 33 28 24 20 18 18 19 19 18 18 19 19 19 20 21 22 22 26 31 35 29 18 19 32 39 34 26 23 23 26 33 38 40
51 58 68 65 48 39 42 44 42 37 32 29 26 25 27 27 26 25 24 22 22 22 22 22 21 22 25 31 33 27 18 18 30 38 34 27 23 23 25 31 37 39
56 63 70 66 49 41 45 47 43 38 32 29 30 33 36 36 36 34 31 27 25 24 24 23 22 21 23 29 30 24 18 18 27 36 34 26 23 22 25 30 36 38
61 65 70 65 50 43 47 47 42 37 34 33 36 43 45 46 48 45 41 36 30 26 24 23 22 22 22 24 25 20 17 17 24 32 31 25 22 22 24 30 34 36
64 66 67 63 50 44 48 48 43 41 41 41 43 47 50 52 55 53 50 47 39 31 26 23 22 24 24 25 23 19 16 16 21 28 29 25 22 21 23 28 32 33
66 66 65 60 50 45 48 49 46 46 49 52 51 52 54 56 56 56 55 54 48 39 32 27 24 25 25 26 25 21 19 17 19 23 26 25 23 22 22 26 29 31
62 63 62 58 50 46 48 50 50 51 54 58 59 60 61 60 59 58 57 57 56 48 38 31 28 26 25 25 25 24 22 20 19 21 23 24 24 24 23 24 26 29
55 56 56 53 49 48 50 51 53 55 56 59 60 61 63 63 63 62 58 57 59 57 49 38 31 30 28 26 25 25 23 22 20 20 21 23 24 24 23 23 24 27
54 54 53 52 52 53 54 55 57 57 57 58 58 59 63 65 67 67 63 59 58 60 60 50 37 32 32 31 30 28 25 22 21 20 20 21 22 23 24 23 23 24
53 55 54 53 55 58 60 59 59 59 58 58 59 61 64 65 65 65 63 61 61 62 63 59 48 38 35 38 40 38 29 22 20 19 20 20 20 22 25 25 24 24
52 55 55 56 58 62 64 64 64 62 61 60 61 64 67 67 67 67 65 63 62 61 60 60 55 47 41 44 51 50 39 27 21 20 19 19 20 22 26 27 25 23
57 60 61 61 61 61 61 63 65 65 65 64 63 65 66 67 68 69 68 66 64 63 62 62 61 55 47 46 52 57 51 39 32 27 22 20 20 21 24 25 24 24
53 59 64 63 63 63 63 64 66 67 69 69 68 67 68 70 69 66 66 67 67 68 70 71 71 68 60 50 48 54 58 51 43 37 31 27 25 24 24 24 24 25
49 53 57 59 62 65 67 69 68 69 71 71 70 69 68 69 68 67 67 67 64 63 65 71 75 76 71 63 54 52 56 57 51 45 41 36 32 30 28 26 26 27

ECMWFNIL_500_rhum_033.txt.gz
RH
4 4 4 4 4 4 4 4 4 5 5 5 5 6 7 7 7 8 8 9 9 11 15 22 26 26 22 14 10 14 22 32 37 36 32 26 18 11 13 19 22 28
3 4 4 4 4 4 4 4 4 5 5 5 5 5 5 5 6 7 7 8 9 10 12 18 24 27 27 22 14 11 16 27 34 37 34 27 21 14 13 18 22 28
3 3 3 3 3 4 4 4 4 4 4 4 4 5 6 6 7 6 7 7 8 10 10 14 20 26 29 28 22 14 12 19 31 38 37 31 24 16 14 17 21 27
3 3 3 3 3 4 6 7 8 9 9 9 8 7 7 7 8 8 8 7 7 9 10 12 16 22 27 30 29 22 14 14 24 36 39 33 26 19 16 17 20 26
5 6 7 10 12 16 20 23 25 26 26 25 24 22 18 14 12 11 11 9 7 8 11 11 12 17 22 27 31 30 23 15 18 29 37 36 30 23 18 17 20 25
7 11 16 21 25 28 31 32 32 32 32 32 31 31 31 30 26 21 16 14 12 11 12 13 12 13 17 22 28 32 31 22 16 23 34 37 33 26 20 18 20 25
9 15 20 24 27 29 31 32 32 32 31 30 30 29 30 32 34 33 29 24 20 17 16 15 14 12 14 18 24 30 33 29 20 19 29 37 35 29 23 20 20 25
9 13 18 24 29 34 35 36 37 38 38 36 34 32 30 30 33 37 38 35 31 27 25 22 19 16 15 16 20 26 32 33 26 20 24 34 37 32 26 22 21 25
12 14 19 27 35 39 39 40 43 44 43 40 35 31 30 30 32 35 39 41 40 37 35 32 29 26 23 21 20 22 27 32 30 23 21 30 37 36 29 24 22 25
22 21 23 31 38 41 41 44 46 47 45 38 31 27 25 26 30 33 37 40 42 42 40 39 37 35 33 30 25 23 26 30 30 26 21 26 36 39 33 26 23 24
31 29 29 35 41 43 43 45 48 49 45 36 28 25 24 23 25 27 29 32 33 35 34 34 35 35 34 33 30 26 26 28 29 28 23 23 32 39 36 30 24 23
38 36 35 39 43 44 45 48 52 52 45 35 28 25 23 21 20 18 18 18 18 18 18 20 22 23 25 28 30 29 29 30 30 30 27 22 27 37 39 33 27 23
42 41 40 41 44 45 47 53 57 54 45 35 30 27 23 19 17 15 14 14 14 14 14 15 15 15 16 19 23 25 28 29 29 30 29 22 23 34 38 34 29 24
44 44 43 43 44 46 50 57 60 54 44 36 33 29 24 19 18 17 17 17 17 17 17 17 17 16 17 19 22 24 26 29 31 31 29 22 21 30 36 34 30 25
46 47 45 44 45 47 52 61 63 54 44 39 37 32 26 22 21 20 20 20 21 21 19 18 17 17 19 20 23 25 26 29 30 29 25 20 18 24 31 31 28 25
48 49 48 46 46 49 56 63 63 55 46 42 40 35 28 25 23 22 24 26 27 26 23 20 18 18 20 20 21 21 19 18 19 17 16 14 14 19 25 26 25 24
48 49 49 48 48 51 58 65 64 56 48 45 42 36 29 26 24 26 30 35 37 36 34 30 25 22 21 21 20 20 18 16 14 13 12 12 12 16 21 24 25 24
50 51 50 49 51 55 60 66 67 58 49 46 45 38 31 28 29 32 38 43 45 46 46 44 39 32 26 24 22 21 20 18 16 15 14 14 14 15 18 22 24 23
53 52 52 51 55 59 60 64 67 59 50 48 47 42 37 36 38 41 44 48 50 52 54 54 52 45 36 30 27 25 24 21 17 16 16 16 16 16 17 20 22 22
61 57 57 57 59 60 59 63 67 61 51 47 48 47 45 45 47 49 51 53 54 55 56 57 57 54 48 40 33 30 29 27 21 17 16 16 17 18 18 18 19 20
68 66 64 62 61 60 60 62 66 61 51 47 49 50 51 52 54 56 58 59 60 60 61 60 58 58 57 53 45 37 33 31 28 24 20 18 17 17 18 19 19 19
67 70 66 62 58 56 56 56 58 56 50 48 50 52 54 55 56 58 59 61 64 65 66 65 62 58 58 59 55 47 42 38 35 31 29 26 22 19 18 19 19 19
49 54 53 51 49 49 51 52 53 53 51 51 53 54 56 56 56 57 57 59 63 65 66 65 63 61 59 59 59 58 57 56 51 47 43 39 34 28 23 20 20 19
39 39 37 35 38 44 49 52 53 54 55 56 57 57 57 56 56 56 57 59 61 64 66 66 65 65 64 63 64 66 67 68 68 65 60 55 50 43 35 28 24 23
47 43 36 30 34 44 51 54 55 56 58 60 61 61 59 58 58 58 58 59 60 62 65 67 68 69 69 67 67 67 68 71 73 72 69 66 61 55 49 42 34 30
50 45 37 33 39 46 50 51 53 54 57 60 62 63 62 61 61 61 61 62 62 63 65 67 68 68 68 69 69 67 66 66 65 64 62 60 57 55 55 54 49 41

ECMWFNIL_500_rhum_036.txt.gz
RH
3 3 3 3 3 3 3 3 3 4 5 6 8 9 9 9 9 9 10 10 11 12 13 14 16 19 22 24 21 16 11 11 16 23 28 27 23 17 12 13 18 24
3 3 3 3 3 3 3 3 4 4 5 6 7 7 7 8 8 8 9 9 10 11 13 14 15 17 20 24 26 25 19 12 12 18 24 27 26 22 15 12 15 21
3 4 4 3 3 3 3 3 4 5 5 6 6 7 7 7 7 7 8 8 9 10 12 13 14 16 19 22 25 28 27 21 14 13 18 24 27 25 20 15 13 17
3 3 3 3 3 3 4 4 4 4 4 5 5 7 7 7 8 9 9 9 8 9 11 12 15 16 18 20 23 26 29 28 23 17 15 19 26 28 25 19 15 15
3 3 3 3 3 3 4 3 3 5 7 10 13 16 18 19 20 20 19 16 13 11 10 11 13 16 17 19 21 24 26 29 30 26 19 17 22 27 28 24 19 15
2 3 3 3 3 4 5 6 10 15 19 24 26 27 29 29 30 30 30 29 26 23 18 14 13 14 17 19 20 22 24 26 30 31 26 20 18 23 28 28 23 18
2 3 4 5 7 9 13 17 21 24 26 28 29 30 30 30 30 30 30 31 32 32 30 26 21 18 18 18 19 21 22 24 27 30 30 26 20 20 25 29 28 23
3 4 5 7 9 12 16 20 23 26 30 32 34 35 36 35 34 32 30 30 30 31 34 34 32 28 25 23 22 23 24 25 26 27 29 30 27 22 22 27 30 28
4 4 4 5 7 10 14 19 26 32 36 38 40 42 41 39 35 31 29 29 29 31 33 36 38 37 36 33 31 31 30 30 30 28 28 29 30 27 23 24 28 30
4 4 5 8 10 13 16 22 30 36 38 39 43 46 45 39 31 26 24 25 27 30 32 35 37 38 39 38 38 37 35 34 33 30 28 28 30 32 28 25 26 30
8 13 18 21 22 22 23 25 31 37 37 39 43 47 45 37 29 25 23 22 23 24 26 29 31 32 34 35 35 36 35 34 32 29 27 26 28 32 32 27 26 29
16 23 28 31 32 32 31 29 32 37 37 40 46 50 46 36 29 25 23 21 19 18 17 18 19 20 20 20 20 22 25 27 28 27 25 25 26 30 33 30 26 27
21 25 28 33 38 39 37 35 35 36 38 43 49 51 44 35 29 27 24 21 17 15 13 12 12 11 11 11 11 12 14 16 18 19 18 18 20 24 30 30 25 24
19 20 23 31 40 42 40 39 37 37 40 45 51 51 44 36 32 29 25 21 18 16 15 13 13 12 12 12 12 11 12 13 13 14 14 15 17 20 25 26 22 20
17 20 24 32 42 45 44 42 40 40 41 45 52 52 46 39 35 32 27 23 20 18 17 15 15 15 15 15 14 13 13 14 14 14 14 15 16 18 19 19 17 16
29 33 35 38 44 47 48 45 43 42 42 46 53 54 49 42 38 35 29 24 21 19 19 19 17 17 16 16 16 15 14 14 15 15 15 14 14 14 14 13 12 11
41 42 42 43 46 49 50 48 45 44 45 48 53 55 52 45 40 37 30 25 23 22 23 26 27 25 23 21 20 19 17 17 16 16 16 15 14 14 14 13 13 12
40 44 45 46 48 51 52 51 48 46 46 49 54 57 55 48 43 39 32 26 25 25 28 35 39 40 39 36 33 30 27 24 22 21 19 18 16 15 15 16 16 16
30 41 51 53 52 55 56 54 50 47 47 51 56 60 59 52 45 41 35 30 28 29 34 39 45 49 50 50 48 45 40 37 35 33 30 27 24 22 20 19 18 17
17 33 55 61 57 57 57 55 52 49 49 53 58 62 62 56 49 44 40 37 34 36 39 43 49 54 55 56 56 54 52 51 49 48 46 45 42 39 36 32 28 26
11 24 50 63 62 59 57 55 53 51 53 57 60 63 64 59 51 46 45 45 44 44 44 46 51 55 58 59 59 58 58 57 56 57 58 60 60 57 55 51 47 44
17 23 41 56 62 62 60 57 56 56 57 61 62 63 63 60 52 48 48 49 50 50 49 50 53 57 61 64 64 62 61 61 61 62 63 66 66 64 61 59 58 56
35 37 39 46 56 65 68 67 65 63 62 63 62 61 61 59 53 48 48 50 52 53 53 55 57 60 63 66 67 65 64 65 67 67 67 67 65 63 61 58 54 51
51 50 45 43 48 58 64 64 64 63 62 60 58 56 56 55 50 46 47 50 52 54 55 57 59 61 63 65 67 67 67 67 68 69 69 68 65 62 59 56 51 45
56 52 49 45 41 41 43 45 48 52 54 54 52 50 51 50 47 48 51 54 56 59 61 63 65 66 67 68 70 71 71 70 70 70 69 69 69 62 51 44 42 39
55 51 50 47 43 40 37 35 37 42 47 50 48 47 47 47 49 52 57 60 63 66 67 68 69 70 70 68 66 66 68 70 71 72 72 74 73 62 43 33 33 33

ECMWFNIL_500_rhum_039.txt.gz
RH
2 2 2 2 3 3 3 4 4 4 5 6 7 8 9 10 10 10 11 11 12 12 13 14 15 16 19 21 21 20 18 15 12 10 12 15 16 16 16 13 13 15
2 2 3 3 3 3 3 3 3 3 4 5 7 7 8 9 9 9 10 10 11 12 13 14 15 16 17 20 22 23 23 22 19 15 12 11 13 16 18 16 14 14
3 2 3 3 3 3 3 3 3 3 4 5 6 7 7 8 8 8 8 9 10 10 12 13 14 15 16 18 20 22 25 25 25 24 20 16 13 13 15 17 17 15
3 3 3 3 3 3 3 3 3 3 4 5 5 5 5 6 6 6 6 8 9 9 10 11 12 13 14 16 18 20 22 24 27 29 29 26 21 15 13 14 17 18
3 3 4 4 3 3 3 4 4 4 5 5 7 8 10 11 12 14 15 16 18 18 17 15 13 13 12 12 15 18 19 20 23 26 29 31 29 25 19 15 15 18
3 3 4 3 3 3 3 3 3 4 7 10 15 20 23 25 25 26 27 27 28 28 28 26 24 22 19 14 14 15 18 19 18 20 24 28 30 30 28 22 17 17
3 3 3 3 3 3 3 3 5 9 14 19 24 27 29 30 31 31 31 31 31 30 30 30 30 31 30 26 22 20 19 20 19 18 19 22 26 30 31 29 24 20
3 3 3 3 3 3 4 7 11 16 19 22 26 30 33 35 37 37 37 35 34 32 31 30 30 31 32 32 32 30 28 27 27 25 22 21 23 26 30 31 29 26
3 2 3 3 4 5 7 11 14 15 17 23 30 34 38 41 42 42 38 33 29 28 28 28 27 28 29 32 34 35 35 35 33 32 29 25 23 23 27 31 33 31
2 2 3 4 4 5 7 9 11 12 17 25 33 36 38 42 44 43 37 30 25 23 22 23 24 25 28 32 34 36 38 38 36 35 33 30 28 25 25 29 33 34
3 3 3 4 4 6 9 11 14 17 21 27 34 36 38 43 46 43 35 28 24 22 20 19 20 22 25 27 29 31 32 32 32 31 30 29 29 28 26 28 31 34
4 5 7 11 15 19 21 22 24 26 26 30 34 35 39 45 47 41 32 27 25 22 19 16 15 15 16 17 17 16 16 16 17 18 19 20 21 22 22 24 26 30
11 14 17 22 27 30 29 28 31 33 33 34 34 35 40 47 47 40 33 29 26 22 18 16 14 12 11 11 10 10 10 10 10 11 13 14 15 17 17 19 20 23
17 18 21 25 28 28 27 27 32 37 38 37 36 37 42 48 48 43 37 32 28 24 19 16 14 13 12 12 11 11 11 12 12 12 13 14 15 17 17 19 19 19
17 16 18 21 22 22 23 26 31 37 40 40 39 39 42 47 50 47 41 35 31 26 21 18 16 14 14 14 14 15 14 14 14 14 15 15 15 16 17 18 18 17
16 16 17 18 19 20 21 26 31 37 42 43 42 41 41 45 50 50 45 39 33 28 22 19 17 17 17 18 20 22 22 22 22 22 22 22 22 22 22 21 21 21
33 33 32 30 30 28 28 33 39 43 45 46 45 43 43 45 51 54 49 42 36 30 25 21 21 22 25 27 30 33 35 36 36 36 36 36 37 37 37 37 38 36
54 53 49 45 43 41 41 44 47 48 49 48 47 46 45 47 53 58 54 46 39 34 27 24 25 28 32 37 40 43 45 45 46 47 49 51 52 53 54 55 55 54
56 53 50 42 38 41 46 47 48 49 51 52 50 48 47 48 54 60 59 50 42 37 32 28 29 32 38 44 47 50 53 52 51 52 55 57 59 61 63 64 63 63
51 48 47 38 28 30 41 50 53 53 54 54 51 49 49 50 55 62 63 55 46 40 37 34 34 36 41 46 50 54 57 57 56 57 59 61 62 64 65 66 66 64
55 50 47 40 28 22 31 49 61 59 57 56 53 50 51 53 56 62 65 61 52 44 41 40 39 42 47 50 53 56 58 59 59 60 62 64 65 66 66 66 66 63
61 55 47 40 35 28 26 40 59 64 60 57 55 52 52 54 57 63 68 67 59 48 44 44 45 48 51 53 55 58 61 63 64 65 65 65 67 68 68 69 69 67
62 58 48 42 45 44 34 34 52 66 64 59 57 55 54 57 60 65 70 70 62 50 44 46 49 52 54 55 58 60 62 65 68 69 68 67 68 70 70 71 71 71
59 55 49 49 54 59 52 39 44 60 66 64 62 58 58 61 63 65 67 65 59 51 46 48 52 54 56 58 61 64 66 68 69 71 72 72 73 73 73 72 72 73
57 49 46 50 56 64 64 49 40 51 64 69 69 66 63 63 61 59 58 56 52 49 48 51 54 58 62 65 69 71 72 72 73 73 73 71 71 71 70 68 67 69
52 46 43 50 56 60 63 54 43 45 53 58 59 58 56 54 51 49 49 49 48 47 50 55 59 65 70 73 73 73 73 73 71 67 60 54 51 50 50 49 50 53

ECMWFNIL_500_rhum_042.txt.gz
RH
3 2 2 3 3 3 4 4 5 6 6 6 6 8 9 10 10 11 11 12 12 12 13 14 15 15 16 18 20 21 21 21 19 16 14 12 13 14 15 15 13 12
3 3 2 2 2 3 4 4 5 5 5 6 6 7 9 10 10 10 10 11 11 11 11 12 12 13 14 15 17 20 22 24 25 25 24 21 17 14 13 15 16 15
2 2 2 3 3 3 4 4 4 4 4 5 6 7 8 9 9 9 9 9 9 9 8 9 9 9 10 11 13 15 17 20 24 27 29 29 27 23 19 15 15 17
2 2 2 3 3 3 4 4 4 4 4 4 5 6 7 8 8 8 8 7 6 6 6 6 7 7 7 8 9 10 11 14 18 22 25 28 30 31 30 26 20 18
2 2 2 3 3 4 3 3 4 4 4 4 5 6 6 6 5 5 6 7 8 10 11 12 11 10 9 8 7 7 7 9 11 14 17 20 24 28 31 33 30 25
2 2 3 3 3 3 3 4 4 3 4 5 4 4 5 6 9 12 16 19 21 22 24 24 22 20 17 14 12 9 7 7 7 9 11 13 17 21 25 29 32 32
2 3 3 3 4 3 4 4 4 4 4 3 4 7 12 18 22 26 29 30 31 31 31 31 30 28 26 25 22 19 15 13 10 10 11 11 12 15 19 23 28 31
3 3 3 3 3 3 4 3 3 3 4 6 12 18 24 28 30 33 35 36 37 37 37 36 35 34 32 31 30 28 25 22 20 19 19 18 16 15 16 18 23 29
3 3 3 3 3 3 4 4 4 6 10 15 20 24 29 33 37 40 42 43 41 39 36 35 35 35 35 36 35 34 31 29 29 27 26 25 23 22 21 19 21 26
3 3 3 3 3 3 4 5 8 11 15 17 20 27 34 38 42 45 46 46 41 35 31 29 29 30 33 36 38 39 38 35 33 32 32 31 29 27 26 25 25 26
3 3 3 3 3 4 6 8 10 11 13 16 21 31 37 39 42 47 48 46 39 31 27 25 24 25 28 30 33 37 40 39 37 35 32 29 26 24 23 22 22 23
3 3 3 3 3 4 6 6 8 11 14 18 24 31 36 37 42 48 50 45 36 29 26 23 20 20 19 19 19 22 26 28 28 26 23 20 19 20 21 21 21 22
3 3 3 3 4 4 5 7 13 18 22 24 26 31 35 37 42 50 51 44 35 29 25 20 17 16 14 13 12 12 14 15 16 17 17 17 18 18 20 20 20 21
3 3 3 4 4 5 10 16 23 28 29 31 31 33 36 38 42 49 52 45 36 30 25 20 16 14 13 12 11 12 13 14 16 17 18 19 20 21 22 22 23 24
4 6 8 9 10 14 22 27 30 32 33 35 37 37 38 39 41 48 52 47 39 32 27 22 18 15 14 13 14 15 16 19 21 25 28 31 33 34 35 36 38 39
7 10 13 16 18 22 27 28 26 27 29 35 40 40 41 40 41 46 52 50 43 35 28 23 19 17 15 15 18 20 24 29 34 39 43 47 49 51 51 53 53 53
12 14 16 18 20 22 24 23 21 20 22 30 39 43 43 43 42 46 52 54 47 38 31 25 20 18 18 20 24 30 36 41 45 49 53 56 59 60 61 63 63 62
14 15 16 16 17 19 19 18 16 15 16 24 37 46 47 45 45 47 52 56 52 41 33 28 23 21 22 27 32 38 42 47 51 54 57 59 61 63 65 67 68 68
37 36 34 32 31 29 27 25 21 21 24 31 42 50 49 47 48 48 51 57 56 46 36 31 27 24 27 32 38 42 44 48 52 56 59 62 64 65 66 68 68 69
58 56 53 50 47 42 38 34 33 36 41 45 49 52 51 50 50 49 51 58 60 51 41 35 31 29 30 34 41 46 47 49 52 56 61 65 67 68 69 70 69 68
61 59 56 51 48 44 37 32 31 37 46 53 56 58 56 54 52 50 52 58 62 57 48 41 36 34 34 37 43 49 51 51 52 55 60 63 66 67 69 71 71 70
66 65 61 56 50 42 33 26 22 27 45 61 64 64 63 57 52 52 53 56 63 64 57 47 40 38 38 40 45 50 53 54 54 55 58 59 62 64 66 68 70 72
68 67 66 64 57 46 36 29 21 22 42 64 68 66 68 64 56 54 54 57 63 68 65 56 46 42 42 43 46 52 55 56 57 57 57 56 57 59 60 62 66 68
66 67 66 65 62 54 46 41 34 28 36 57 69 69 67 66 62 57 54 57 63 67 68 63 53 47 46 46 49 54 57 59 60 59 59 59 60 59 59 61 62 62
66 67 66 64 63 59 53 49 48 45 40 46 61 70 68 63 62 59 56 58 63 66 66 65 58 52 48 49 52 55 58 60 61 60 61 65 67 68 70 69 62 53
66 65 65 65 63 59 54 49 51 56 54 46 49 63 70 66 62 61 61 62 66 67 64 62 59 53 49 50 54 57 59 61 61 60 64 71 74 74 71 65 55 48

ECMWFNIL_500_rhum_045.txt.gz
RH
3 3 3 3 3 4 5 6 7 7 6 5 6 7 9 10 11 11 12 12 12 13 13 14 15 15 16 18 20 21 23 24 25 25 22 20 17 14 12 12 12 13
3 3 3 3 3 4 5 6 7 7 6 6 6 8 10 10 11 11 12 12 12 11 12 12 12 12 12 13 15 17 19 21 24 28 29 29 29 27 25 21 17 15
3 3 3 3 3 3 4 5 6 6 6 6 7 9 10 10 11 11 11 11 11 10 10 10 9 9 9 9 10 11 13 15 17 21 25 27 29 31 33 33 31 26
3 3 3 3 3 3 4 5 5 6 6 6 7 8 9 10 10 10 10 10 10 9 8 8 7 7 7 7 7 8 8 9 10 13 16 19 22 25 28 31 33 34
3 3 3 2 2 3 3 4 4 5 5 6 7 8 8 9 9 9 9 8 8 7 6 6 7 7 8 8 7 7 7 7 7 8 9 11 14 17 20 23 27 31
3 2 3 2 2 3 3 4 4 5 5 5 6 7 7 8 8 7 6 6 5 6 7 9 11 13 14 14 12 11 10 8 8 7 7 8 9 11 14 17 21 26
3 3 2 2 2 3 3 4 4 4 4 5 5 6 6 6 6 6 7 9 11 13 15 18 20 21 21 21 21 20 18 16 14 12 10 9 9 10 12 13 17 21
3 2 2 2 3 3 4 3 4 4 3 4 4 5 5 5 7 12 16 20 23 25 27 28 29 30 29 29 28 27 26 25 23 20 18 16 15 15 15 15 17 20
2 2 2 2 3 3 4 3 4 4 3 4 5 4 6 10 16 23 27 30 33 35 37 38 39 38 37 36 35 34 33 31 29 27 25 24 23 23 23 22 21 23
2 2 2 3 3 3 4 4 4 4 4 4 4 6 13 20 26 30 34 38 42 44 44 42 39 38 37 38 38 39 38 36 33 31 30 31 31 29 26 24 22 22
2 2 2 3 4 3 3 4 3 3 3 3 6 13 21 26 30 36 41 46 47 47 43 37 33 32 32 34 38 40 41 40 37 35 36 35 31 27 23 22 21 20
2 3 3 3 4 4 3 3 3 3 4 7 14 21 25 29 35 41 45 48 49 46 40 33 28 27 26 29 35 39 42 42 40 38 34 29 24 21 21 21 21 20
3 3 4 4 3 3 3 3 3 4 8 13 19 22 26 34 41 43 45 49 50 45 36 30 26 24 22 23 28 33 35 35 33 28 23 20 19 19 19 19 19 20
4 4 4 4 3 3 3 3 4 7 12 14 16 20 29 39 42 42 46 50 50 43 34 28 24 20 18 17 18 20 21 21 20 17 16 17 18 19 20 22 24 27
4 4 4 3 3 3 3 3 5 9 11 12 16 22 30 38 41 41 46 52 51 43 34 28 22 18 16 14 13 13 14 15 15 16 18 21 24 27 31 35 40 43
4 4 4 3 3 3 3 4 7 8 11 16 22 26 30 36 40 41 46 53 53 45 37 29 23 19 16 14 13 14 15 17 20 24 30 34 37 41 45 50 54 56
4 3 3 3 3 3 3 5 7 11 19 25 28 31 34 36 39 41 46 53 53 48 40 32 24 20 16 15 15 16 20 25 32 39 45 48 50 51 56 61 63 63
4 3 3 3 3 4 6 9 14 21 29 33 34 37 38 38 40 43 45 49 53 51 44 34 27 21 17 16 17 21 28 36 43 50 54 56 57 59 63 66 67 68
7 5 5 6 7 12 16 20 25 31 34 35 35 37 39 40 43 44 44 47 52 54 48 38 29 22 19 19 20 26 34 41 47 52 56 58 60 63 67 69 69 70
19 18 18 21 24 27 30 31 32 33 31 29 28 27 31 39 45 47 45 46 51 55 52 43 34 26 21 21 24 30 37 43 47 51 55 58 60 64 68 70 71 71
27 29 31 33 34 34 32 31 30 27 24 22 18 15 19 30 42 48 48 47 50 56 55 48 38 30 26 25 26 31 37 42 46 50 55 59 61 65 69 70 71 70
41 44 45 45 44 42 40 38 35 34 33 30 27 24 23 29 41 49 50 50 51 54 57 53 43 35 31 29 29 31 35 39 44 49 56 61 63 67 69 69 69 68
61 61 60 58 56 54 52 48 43 40 40 40 42 43 42 45 53 58 56 53 52 53 57 57 49 41 36 34 33 33 34 37 41 47 53 59 62 65 66 66 66 65
68 67 66 65 63 61 59 53 44 37 33 35 41 48 52 57 63 66 63 57 53 54 58 59 55 48 42 39 37 37 37 38 41 44 51 57 60 61 62 62 62 61
69 70 70 69 68 67 65 60 48 38 31 29 31 40 53 62 66 68 70 66 58 54 57 61 61 57 52 47 42 40 40 41 41 42 48 54 57 58 57 55 54 55
69 70 70 69 68 68 67 64 57 48 42 38 35 37 48 61 69 72 74 73 65 58 56 59 64 65 63 58 53 48 44 44 42 42 47 53 55 54 52 50 50 55

ECMWFNIL_500_rhum_048.txt.gz
RH
5 4 4 4 4 6 7 7 7 6 5 5 6 7 8 8 9 11 12 13 15 16 16 17 18 18 19 20 21 22 25 27 28 28 29 29 29 28 26 23 19 16
5 4 3 4 3 4 6 7 8 7 6 5 5 7 9 10 11 11 12 14 15 15 15 15 14 14 13 14 15 16 18 21 24 27 28 30 31 33 34 34 31 27
5 4 4 3 3 3 4 7 8 8 7 5 5 8 9 10 11 12 13 14 14 13 12 12 11 11 10 10 10 10 11 13 15 18 20 22 24 26 29 32 33 34
5 4 4 3 3 3 4 6 8 8 7 6 6 8 10 11 11 13 13 13 12 12 11 10 9 8 8 8 8 8 8 8 9 10 11 13 15 18 21 24 27 30
5 4 4 3 3 3 3 5 6 7 7 6 7 8 10 11 12 12 12 11 11 11 10 9 8 7 7 7 8 7 7 8 8 8 8 8 10 12 14 18 20 24
4 4 3 3 3 3 3 4 5 6 6 6 7 9 10 11 11 11 11 11 10 9 8 7 6 7 9 10 11 9 9 10 10 9 7 7 8 9 11 14 16 20
4 4 3 3 3 3 3 4 4 5 6 6 7 9 10 10 10 10 10 9 9 8 6 6 7 10 14 17 18 16 15 15 14 14 12 9 9 10 12 13 15 19
4 3 3 3 2 3 3 3 4 5 5 6 6 8 9 9 9 9 9 8 7 5 6 10 15 19 21 24 25 25 23 21 20 19 17 15 15 16 16 15 16 21
4 3 3 3 3 3 3 3 4 4 4 5 6 7 8 8 7 7 7 6 5 7 13 19 24 28 31 33 34 33 31 29 27 25 22 20 21 22 22 20 22 24
3 3 3 3 3 3 3 3 3 4 4 4 5 6 6 6 6 6 5 6 10 17 24 30 33 37 39 39 38 37 36 35 33 30 27 26 27 27 26 25 24 22
3 3 3 3 3 2 2 3 3 4 4 4 4 5 5 5 5 5 7 13 20 28 33 38 41 44 42 38 35 35 37 38 38 36 33 31 31 31 29 26 22 19
3 3 3 3 3 3 3 3 3 4 3 4 4 4 4 5 5 7 13 22 29 35 40 44 47 45 39 32 29 30 33 36 39 39 37 35 35 33 29 24 20 19
3 3 3 3 3 3 3 3 4 3 3 4 3 4 5 5 6 12 22 30 35 41 45 48 48 42 34 28 26 27 29 32 35 36 37 38 36 30 24 20 19 19
5 4 3 3 3 3 3 4 3 3 4 4 4 5 5 5 11 20 28 33 39 44 47 49 47 39 31 26 24 23 23 26 28 30 31 30 26 21 19 18 18 17
7 5 4 3 3 3 3 3 4 4 4 3 4 4 4 8 17 24 29 36 41 45 48 50 45 37 29 25 21 18 17 18 19 20 21 19 17 16 16 16 17 18
7 6 4 3 3 4 4 4 4 4 4 4 3 3 6 15 21 24 30 38 42 45 50 51 44 35 29 23 18 15 13 12 12 13 14 14 15 15 16 18 21 25
6 5 3 3 4 4 4 4 4 3 3 3 3 6 13 20 21 23 32 40 41 43 50 52 45 36 29 23 18 15 12 11 11 12 13 15 16 18 21 26 31 36
5 4 3 3 4 4 4 4 3 3 3 3 5 13 20 21 21 27 37 41 40 42 49 53 48 40 33 25 19 15 13 12 13 14 16 19 21 24 29 35 42 47
4 3 3 4 4 4 4 4 3 3 3 4 11 18 20 20 24 33 39 41 40 42 49 54 50 44 37 28 20 16 14 14 15 18 21 26 30 34 37 42 49 55
3 3 4 4 4 4 4 4 4 3 3 7 13 17 18 22 28 34 39 41 42 44 48 51 52 49 41 31 22 17 15 16 19 24 30 36 39 42 44 47 53 60
4 4 4 4 4 4 3 4 3 3 6 11 16 19 23 29 34 38 41 43 43 45 46 48 51 52 46 35 26 20 17 18 22 30 37 42 44 46 47 49 56 63
4 4 5 4 4 4 3 4 4 6 11 17 23 29 35 39 41 43 45 46 47 47 47 48 51 53 51 42 31 24 21 20 25 34 40 42 45 48 48 53 60 66
7 6 5 4 4 4 5 7 10 16 23 29 35 40 42 42 40 39 41 44 47 49 49 51 51 53 54 49 39 32 26 23 25 33 39 43 46 48 49 55 63 67
17 16 15 14 14 16 19 23 27 32 36 39 40 39 37 33 28 26 25 28 36 46 51 54 53 53 55 53 48 42 34 28 27 30 35 41 45 48 50 54 61 65
25 26 28 30 31 34 38 41 41 42 41 39 36 33 31 28 24 21 20 23 33 47 55 57 55 55 56 56 55 51 43 36 33 32 33 37 42 47 51 55 60 63
32 34 38 41 44 49 51 50 47 47 45 41 38 36 34 33 31 32 34 38 45 55 64 66 61 57 57 57 58 57 52 46 44 41 37 36 38 42 49 56 60 62

ECMWFNIL_500_rhum_051.txt.gz
RH
6 7 7 8 8 8 8 8 6 5 5 6 6 5 6 6 7 8 9 10 12 15 17 19 20 21 23 24 26 26 26 27 28 27 27 26 25 24 22 19 18 17
6 6 6 6 7 7 8 8 7 6 5 5 5 6 7 8 9 10 11 14 16 18 20 20 19 19 20 21 23 25 27 28 30 30 31 32 32 33 33 31 29 25
6 5 5 5 5 6 7 8 8 7 6 5 5 6 8 9 10 12 13 16 17 18 18 16 15 14 13 14 14 15 17 18 20 22 24 26 28 29 31 32 33 32
6 5 5 4 4 5 5 6 8 8 7 6 5 6 9 9 10 13 14 16 17 16 15 13 12 11 10 10 10 9 10 10 12 12 13 16 19 22 24 26 29 31
6 5 5 4 4 4 4 5 7 8 7 6 5 6 9 10 10 13 15 16 15 13 12 11 10 9 8 8 9 9 9 9 11 10 9 10 11 14 18 20 22 25
6 5 5 4 4 3 3 4 6 8 8 7 6 6 9 10 11 13 16 15 14 12 11 11 9 8 7 8 9 10 11 11 13 13 12 11 10 10 12 14 17 20
6 6 5 4 4 3 3 4 5 7 8 7 6 7 9 10 12 14 15 14 13 12 11 10 8 7 7 8 10 13 15 16 16 16 16 14 12 12 13 13 16 20
6 6 5 4 3 3 3 3 4 6 7 7 7 7 9 11 12 14 14 13 12 11 10 9 7 6 8 12 16 20 22 23 23 23 21 17 16 17 18 17 19 23
7 6 5 4 3 3 3 3 4 5 6 6 7 7 9 11 12 12 12 11 11 10 9 8 6 7 11 17 24 28 30 30 30 29 27 23 21 21 22 23 25 26
7 6 5 4 3 3 3 3 3 4 5 6 6 7 8 10 11 11 11 11 10 9 8 6 6 11 18 25 31 35 36 36 35 33 31 28 25 24 25 27 29 26
7 6 5 4 4 3 3 3 3 3 5 5 6 7 7 9 10 10 10 9 9 8 7 6 10 19 27 33 38 40 40 38 36 35 34 31 29 27 28 31 30 24
6 5 5 4 3 3 3 3 3 3 4 4 6 6 7 8 9 9 9 8 8 7 5 8 17 27 34 39 43 43 39 35 33 34 35 35 33 30 30 32 29 21
6 6 5 4 4 3 3 3 2 3 3 4 5 6 6 7 8 8 7 6 6 5 7 15 25 33 40 45 46 41 34 29 28 28 31 35 36 34 33 32 26 18
6 6 5 4 4 3 3 3 3 3 3 4 4 5 5 6 6 6 6 6 5 6 12 22 31 38 45 48 46 38 31 26 24 23 26 31 35 36 36 31 22 14
5 5 6 5 4 3 3 3 3 3 3 3 4 5 5 5 6 5 5 5 5 8 18 27 35 43 49 49 45 36 29 25 21 19 20 26 32 35 34 27 17 13
7 5 5 4 4 3 3 3 3 3 3 3 4 4 4 4 5 5 5 5 5 11 22 30 39 48 50 48 43 35 28 24 19 16 16 20 26 28 25 18 13 12
10 6 5 4 4 4 3 3 3 3 3 3 4 4 4 4 4 5 5 4 6 15 25 33 43 49 49 49 44 36 29 24 19 16 14 16 19 19 17 13 12 13
12 9 7 5 4 4 4 3 3 3 3 4 4 3 4 4 4 5 4 3 8 19 28 37 45 48 47 49 47 38 32 27 22 17 14 13 14 13 13 13 13 15
11 10 8 7 6 5 4 3 3 3 3 4 4 4 4 4 4 5 3 4 13 23 31 40 46 45 45 49 48 42 36 31 26 20 14 13 13 13 14 16 17 20
10 9 8 8 7 6 5 4 3 3 4 4 4 4 4 4 4 4 3 8 18 26 32 41 45 43 44 47 49 46 41 36 30 22 15 13 14 15 17 20 24 28
8 9 8 8 8 7 5 3 3 4 4 4 4 4 4 4 4 3 5 13 21 26 33 41 44 43 43 45 48 48 44 40 35 26 17 14 16 20 24 29 33 35
6 6 7 6 6 6 5 3 3 4 4 4 4 4 4 4 3 5 12 20 25 28 35 41 44 44 43 44 46 48 45 43 41 31 20 17 20 26 32 37 40 42
4 5 5 5 6 6 5 3 3 4 4 4 4 4 4 3 5 13 21 26 28 31 36 40 43 44 44 43 44 45 45 47 45 37 25 19 24 32 39 43 46 47
4 4 4 4 5 5 4 4 4 4 4 4 4 4 3 5 11 19 24 25 29 34 39 42 45 45 44 44 44 45 46 48 49 44 32 23 25 35 42 46 48 49
4 4 4 4 5 4 4 4 4 4 4 4 4 4 5 9 15 21 25 30 36 40 43 44 46 46 45 45 45 46 47 49 52 50 41 29 27 34 41 44 46 48
4 4 4 4 4 4 4 4 5 5 4 4 4 6 9 15 21 27 34 40 43 42 40 37 36 35 34 35 38 42 46 49 52 54 49 37 29 31 36 38 40 44

ECMWFNIL_500_rhum_057.txt.gz
RH
8 7 7 7 6 6 6 6 6 7 9 11 13 12 10 9 9 7 6 6 6 5 5 4 4 5 5 5 6 6 7 7 8 8 9 9 10 10 9 9 9 9
8 8 7 7 7 7 6 6 5 6 7 8 10 10 9 9 9 7 5 5 5 4 4 4 4 4 5 5 5 5 6 7 8 10 11 12 14 16 16 17 16 14
8 8 8 8 8 8 7 6 6 5 6 6 6 7 6 6 7 6 5 5 4 4 5 5 5 6 8 9 9 12 14 16 18 20 23 25 26 27 27 27 27 26
7 8 8 9 8 8 8 6 6 5 5 5 5 5 5 4 5 5 5 5 5 6 6 7 10 12 16 19 21 23 25 26 26 27 27 26 26 26 26 27 28 28
7 7 8 9 8 8 8 7 7 6 5 5 5 4 4 4 5 5 5 5 5 7 9 13 18 21 23 23 23 22 22 21 20 19 18 17 16 18 19 20 22 24
6 7 7 8 8 7 7 8 7 7 5 5 5 5 5 5 4 4 5 5 6 10 15 19 22 21 19 17 15 13 12 11 11 11 11 11 11 13 14 14 16 20
6 7 6 7 8 7 7 7 8 7 6 5 5 5 5 5 4 5 5 6 9 14 19 20 18 14 12 10 9 9 9 9 10 10 10 11 12 13 13 12 13 16
7 7 6 7 7 7 7 7 7 7 6 6 5 5 6 5 5 5 5 7 12 17 19 17 13 10 9 8 7 9 11 12 13 14 14 14 15 15 16 14 14 15
7 7 6 6 6 6 7 7 7 7 6 6 6 5 5 5 6 6 6 9 14 18 18 15 12 10 9 8 9 11 15 17 18 20 20 20 20 20 20 19 19 19
6 7 7 6 6 6 6 7 6 6 6 6 6 6 5 5 6 7 7 10 14 17 18 15 12 10 9 9 11 13 17 20 22 24 26 27 27 26 25 24 24 24
6 7 7 6 6 5 6 7 6 5 6 6 6 6 5 4 5 7 7 9 14 17 17 15 12 11 10 9 11 14 17 21 25 28 29 31 31 31 31 29 27 26
7 7 7 7 7 6 6 6 5 5 5 5 6 6 6 5 5 7 8 9 13 16 16 15 13 11 10 9 10 13 16 22 27 30 33 35 35 34 33 32 30 30
8 8 7 7 7 6 6 5 5 5 4 4 5 6 6 6 5 6 7 8 11 15 16 15 13 12 11 9 10 12 17 26 31 34 37 40 38 34 31 30 30 31
9 8 8 8 7 7 7 6 5 5 4 4 4 5 6 6 5 6 7 8 9 12 15 15 13 13 11 9 9 12 19 29 35 38 42 42 39 35 30 29 29 29
8 8 9 8 8 8 7 7 7 5 5 4 3 4 5 6 6 6 5 7 9 11 14 14 13 12 11 9 8 11 20 30 37 41 44 43 38 33 29 27 25 26
9 8 8 8 8 8 7 8 8 6 6 5 4 4 3 4 6 6 6 6 7 9 12 13 13 12 11 9 8 11 21 31 38 42 44 42 37 30 26 22 19 20
9 8 8 8 8 8 8 8 8 7 7 5 5 4 3 3 4 5 6 6 6 8 10 11 12 12 11 10 8 11 21 31 38 42 43 42 37 29 24 20 16 15
8 8 9 9 7 7 7 7 8 7 7 6 6 5 4 3 3 4 5 6 6 6 8 10 11 11 11 10 8 9 19 30 38 42 43 43 39 32 26 21 17 14
8 7 8 8 8 8 6 6 7 7 7 6 6 6 5 4 3 3 3 4 5 5 7 8 9 11 10 9 8 8 15 26 35 40 43 44 41 36 30 25 20 16
18 13 10 8 7 7 7 6 6 6 6 7 6 6 6 5 4 3 3 3 4 5 6 6 7 9 9 9 7 6 11 22 31 36 42 45 45 40 34 29 24 19
33 26 21 17 14 10 7 6 6 6 5 6 6 6 6 5 4 3 3 3 3 3 5 5 6 6 7 8 7 5 8 17 25 33 40 45 47 45 40 36 31 24
47 39 31 26 23 18 12 7 6 6 6 5 5 5 6 6 4 4 4 3 3 3 3 4 5 5 5 7 6 5 6 13 22 30 38 44 47 47 44 41 37 30
56 51 43 35 29 25 20 14 8 7 7 6 5 5 5 5 5 4 4 3 3 3 3 3 4 5 5 5 6 5 5 10 19 27 35 42 46 47 46 45 42 37
59 55 52 46 38 31 26 22 17 13 10 9 7 6 5 5 5 4 4 3 3 3 3 3 3 4 4 4 5 5 5 9 16 24 32 40 44 45 46 46 45 43
59 54 53 53 49 40 29 24 21 19 16 12 10 8 6 4 4 4 4 3 3 3 3 3 3 4 4 4 4 4 4 7 14 22 30 38 43 44 44 44 45 46
57 49 49 55 56 47 32 22 19 19 19 16 12 10 8 6 4 4 3 3 3 3 3 3 3 3 3 3 4 4 3 7 13 20 28 37 41 42 43 43 43 45

ECMWFNIL_500_rhum_060.txt.gz
RH
5 5 5 6 6 7 7 8 9 10 9 9 8 7 7 7 7 6 6 5 5 5 4 5 5 5 5 5 6 6 6 7 7 7 6 6 7 8 8 9 9 9
6 5 5 5 6 6 6 7 8 9 10 10 9 9 8 8 8 6 5 5 4 4 4 4 4 4 4 4 5 5 5 6 6 8 10 13 16 18 19 21 21 20
6 6 6 5 5 6 5 6 7 8 9 10 10 10 9 8 8 6 5 4 3 4 3 3 3 3 4 4 4 5 6 9 13 17 21 23 24 25 26 27 27 27
7 6 7 6 5 5 5 5 6 6 8 10 11 11 10 9 9 7 5 4 3 3 3 3 4 4 5 6 8 11 15 19 22 23 23 23 22 22 22 23 24 25
7 6 6 7 6 5 5 5 5 6 6 8 9 10 10 9 8 7 6 4 3 3 3 4 4 5 8 12 17 21 23 23 22 20 18 17 17 17 18 19 19 22
6 7 6 7 7 5 5 5 5 5 5 6 7 7 7 7 6 6 5 4 3 3 3 4 6 9 15 20 22 22 20 17 16 15 15 15 15 17 18 18 17 20
5 7 6 7 7 6 6 5 5 5 5 5 6 6 5 5 4 4 4 4 4 3 4 5 9 15 19 20 18 15 13 12 12 14 15 16 18 20 21 20 19 21
4 6 7 7 7 7 6 6 5 5 5 4 4 5 5 4 4 4 4 4 3 3 4 7 12 17 18 15 12 11 11 11 14 16 17 19 21 23 24 24 23 23
4 5 6 7 7 7 7 6 6 6 5 4 4 4 4 4 4 4 3 3 3 3 5 9 14 16 14 12 11 11 12 12 15 19 20 22 25 26 27 26 25 25
5 4 5 6 7 7 7 7 7 6 6 5 4 4 4 4 4 3 3 3 3 4 7 11 15 14 12 11 10 11 12 13 16 20 23 26 28 29 29 28 27 25
8 6 5 6 6 7 7 7 7 7 6 6 5 4 4 3 3 3 3 3 3 4 8 12 15 15 12 10 10 11 13 15 17 20 25 29 31 31 31 31 29 27
9 8 6 5 6 6 7 7 6 7 7 6 6 5 5 4 4 4 3 4 4 4 8 12 14 15 13 11 10 11 13 15 17 20 26 30 33 35 36 33 30 27
8 9 8 7 6 6 7 7 6 6 6 7 6 5 6 6 5 5 4 4 4 4 7 10 13 15 14 12 11 11 12 14 16 20 26 31 36 40 39 34 29 26
7 8 8 8 7 6 7 7 7 6 6 6 6 5 6 6 6 6 5 4 4 5 6 8 11 15 15 13 12 11 10 12 16 20 26 32 39 42 40 34 28 24
7 7 7 8 8 7 6 7 7 7 6 6 6 6 5 5 6 6 6 6 5 4 5 7 10 13 15 14 13 12 10 12 16 21 27 33 39 42 40 35 27 21
7 6 7 8 8 8 7 7 7 7 7 6 6 6 5 4 5 5 6 6 6 5 5 6 8 12 14 15 14 13 11 10 15 21 28 35 40 43 41 35 27 21
11 6 7 7 8 9 8 7 7 7 7 7 6 6 5 5 4 4 5 5 6 6 5 5 7 9 13 14 14 13 12 11 12 18 27 35 40 43 43 37 30 23
18 9 6 6 7 9 8 8 8 7 7 7 7 7 6 6 5 4 4 4 4 5 5 6 6 7 10 13 14 13 12 12 10 13 24 34 40 44 45 41 34 28
28 14 8 6 6 8 9 9 8 8 8 7 7 8 7 7 6 5 5 4 3 4 4 5 6 6 7 11 13 13 12 12 11 11 19 30 38 43 46 43 38 32
39 25 14 9 7 6 7 9 9 8 8 7 7 7 7 7 7 6 6 5 4 3 3 4 5 5 6 8 10 12 12 12 11 10 15 26 35 41 44 44 41 37
49 38 29 20 13 9 7 8 8 8 8 7 7 6 6 7 7 7 6 6 5 4 4 3 3 4 5 6 7 9 10 11 11 9 11 19 30 38 42 42 42 41
57 51 46 39 28 19 14 13 12 12 11 10 7 6 6 6 6 6 6 6 5 5 5 4 3 3 4 5 5 6 8 9 10 9 7 12 24 34 37 39 41 43
61 58 58 55 46 34 27 25 23 21 20 18 12 8 6 6 6 6 6 6 6 6 6 4 4 3 3 3 4 5 6 6 8 8 6 8 18 27 32 35 38 42
62 64 65 65 59 49 41 38 34 29 27 25 20 14 8 6 6 6 5 6 6 6 6 5 4 3 3 3 3 3 4 4 6 7 6 6 12 22 28 31 34 38
59 65 69 69 66 60 53 48 44 37 32 27 25 21 16 10 9 7 6 6 5 5 6 5 5 4 3 3 3 3 3 4 4 5 6 5 8 17 24 27 30 35
59 64 69 71 71 68 61 54 50 46 39 32 27 25 22 18 15 12 10 8 6 5 5 5 5 4 3 3 3 2 3 3 3 4 5 4 7 14 21 23 27 33

ECMWFNIL_500_rhum_063.txt.gz
RH
7 7 7 8 10 13 13 13 13 12 11 10 9 8 8 7 7 6 5 4 4 4 5 4 4 4 4 5 4 5 5 5 6 6 7 8 9 11 12 14 14 14
8 7 7 7 8 10 12 12 12 12 11 10 10 9 8 8 7 6 6 5 4 4 4 4 4 4 3 4 4 4 5 5 8 11 14 17 19 22 24 25 25 25
8 7 7 7 7 8 9 10 11 12 12 11 11 11 10 9 7 7 6 5 4 4 4 4 4 4 4 4 4 5 7 12 17 21 23 25 25 26 27 27 27 27
8 8 7 7 7 7 7 8 9 10 11 12 12 12 12 10 8 7 6 5 4 4 4 4 4 4 4 5 6 10 16 21 23 24 23 22 22 22 22 23 24 25
7 8 8 7 7 6 6 7 7 9 10 11 12 12 13 12 10 8 7 5 4 4 4 4 4 4 5 7 12 18 22 23 21 20 20 19 19 20 20 20 21 23
7 7 7 8 7 6 6 6 6 7 8 9 11 12 13 13 12 10 8 6 4 4 4 4 4 5 6 11 18 22 21 19 18 19 19 20 21 22 22 21 21 23
5 6 7 7 8 7 7 6 6 6 7 7 9 10 11 13 13 11 9 7 6 4 4 4 4 5 9 16 21 21 18 16 18 20 21 23 25 25 25 25 24 23
4 5 6 7 8 8 8 7 7 6 6 6 6 8 9 10 11 10 9 7 6 5 4 4 4 6 12 19 21 18 14 16 19 23 25 26 27 28 27 27 26 24
5 4 5 7 7 8 8 8 8 7 6 6 6 6 7 7 8 7 7 6 5 4 4 4 4 7 12 18 18 14 13 16 20 23 26 28 28 29 29 28 27 25
5 5 4 5 7 8 8 9 9 8 7 6 6 6 5 6 6 6 5 5 4 4 4 4 4 6 11 15 14 12 13 16 19 22 26 29 30 30 31 30 28 26
6 6 5 5 6 7 8 9 9 9 8 7 7 6 6 5 5 5 5 4 4 4 3 3 4 5 10 13 12 12 12 14 18 22 25 29 31 32 33 32 30 28
7 7 7 6 5 6 7 8 8 9 8 8 8 7 7 6 6 5 4 4 4 4 4 3 4 5 9 11 12 12 12 12 16 20 23 28 31 34 37 35 31 29
8 8 9 9 7 6 6 7 8 8 8 8 8 8 7 7 7 6 5 5 4 4 4 4 4 5 8 11 12 12 12 12 13 17 22 26 30 35 41 40 33 28
6 7 8 9 9 8 6 6 7 8 8 8 8 7 8 7 7 7 6 5 5 4 4 4 4 5 7 11 13 12 12 12 13 15 20 25 31 37 42 42 37 30
5 6 7 8 9 8 8 7 7 7 8 8 8 7 7 7 7 7 7 6 6 5 5 5 5 5 6 10 13 13 13 13 13 14 16 20 27 35 42 44 40 33
7 5 5 7 8 8 9 8 7 7 7 8 8 7 7 7 7 7 7 7 6 6 6 5 5 5 6 8 11 14 14 14 13 14 15 17 21 30 39 44 43 35
15 8 5 5 6 7 8 9 8 8 7 7 8 8 7 7 7 6 6 6 6 6 6 6 6 6 6 6 8 11 14 14 14 14 14 14 16 24 35 43 44 39
24 15 9 6 6 7 7 8 9 8 8 8 7 8 8 7 7 7 6 6 5 5 5 5 6 6 6 6 6 8 11 13 14 14 14 13 13 18 29 41 45 42
35 23 15 8 6 7 6 8 8 8 9 9 8 8 7 8 8 7 7 6 5 5 5 4 5 5 6 6 5 6 8 11 13 13 13 13 12 13 22 37 44 43
47 33 22 12 7 6 6 6 7 8 9 9 9 9 8 8 8 7 7 7 6 6 5 4 4 4 4 5 5 5 6 8 11 12 13 13 11 10 16 29 40 41
52 42 31 19 10 7 6 6 7 8 9 9 9 9 9 8 8 7 8 8 8 7 6 5 5 4 4 4 4 5 5 6 8 10 12 13 12 10 11 21 33 37
49 47 40 28 18 11 6 6 6 7 8 9 8 9 9 8 8 7 7 7 8 8 7 7 6 5 5 4 3 4 4 5 6 7 10 12 12 10 8 13 23 31
47 50 47 38 28 20 13 9 8 7 8 8 8 8 8 8 7 7 7 7 7 7 8 8 7 7 6 5 4 4 3 3 4 5 7 10 11 11 8 8 14 22
50 55 54 47 39 32 27 21 15 11 10 8 8 8 7 8 8 7 6 6 6 6 6 7 7 7 7 6 5 5 4 4 3 3 5 8 9 10 9 7 8 14
55 57 58 55 49 43 39 35 30 24 18 13 12 11 11 11 11 9 7 6 5 5 5 6 6 6 6 6 6 6 5 4 3 3 3 5 7 8 8 7 6 9
53 54 56 57 56 53 49 45 41 37 31 26 22 19 17 18 18 16 12 8 6 5 5 5 6 5 6 6 6 6 6 5 4 3 3 3 5 7 7 6 6 6

ECMWFNIL_500_rhum_069.txt.gz
RH
9 11 12 11 11 11 9 8 7 7 7 7 6 5 5 5 4 4 4 4 4 4 4 4 4 4 5 5 5 6 6 7 7 7 7 7 7 7 8 8 9 10
8 9 11 11 11 11 11 10 8 8 8 7 6 6 5 5 5 4 4 4 4 4 4 4 4 4 4 4 5 6 6 6 7 8 9 12 14 15 14 12 10 9
7 8 9 11 11 11 11 11 9 8 8 8 7 7 6 5 5 5 4 4 4 4 4 4 3 3 4 4 5 6 6 8 10 14 19 22 24 24 22 20 16 13
7 7 8 10 11 12 11 11 10 8 8 8 9 8 7 6 6 5 5 5 5 4 3 4 3 3 3 4 5 6 9 14 18 22 27 28 26 26 24 22 19 17
8 8 7 8 10 11 11 11 11 10 9 9 9 8 7 7 7 6 5 5 5 5 3 3 3 3 4 4 7 10 15 20 24 26 27 25 23 23 23 22 21 18
8 8 8 7 8 9 11 12 12 12 12 11 10 9 8 8 7 7 6 5 5 5 4 3 4 4 5 6 11 16 21 24 25 25 23 21 21 20 21 22 22 20
6 8 9 8 8 8 9 10 11 12 12 12 11 10 8 8 8 7 7 6 6 5 4 4 4 4 6 10 16 21 23 24 23 21 20 20 20 21 21 22 22 22
5 7 9 9 7 7 8 8 9 10 11 11 11 10 9 9 9 8 8 7 7 6 5 4 4 5 7 14 20 23 23 22 20 20 21 22 22 22 21 22 23 24
4 5 7 9 8 7 7 7 8 9 9 9 9 10 10 10 9 9 9 9 8 8 7 6 4 4 9 16 22 23 21 20 20 21 21 23 23 23 23 24 25 25
4 5 6 8 8 8 7 7 7 7 7 8 8 9 9 10 10 9 9 9 10 9 8 6 5 4 8 16 22 21 20 20 21 22 23 23 24 25 25 26 26 25
5 4 5 7 8 8 7 7 7 7 7 7 7 8 8 9 9 9 9 10 10 9 7 6 5 4 6 14 20 20 18 20 23 24 25 26 26 27 27 27 27 27
10 6 4 5 7 8 8 7 7 6 6 6 6 7 7 8 8 8 8 9 9 8 7 5 5 4 5 10 18 20 17 20 23 25 26 28 28 28 28 29 30 29
12 10 7 5 5 7 8 7 7 7 6 6 6 6 6 6 7 7 7 7 7 7 6 5 5 5 4 6 13 18 17 19 22 24 25 27 28 28 28 29 32 31
13 12 10 7 5 6 6 7 7 7 7 6 6 6 6 6 6 6 6 6 6 6 6 5 4 5 5 4 9 16 16 17 21 22 23 24 24 25 25 28 30 30
10 12 12 10 8 5 5 6 7 7 7 7 7 6 6 6 6 6 6 6 6 5 5 5 4 4 5 4 6 13 15 15 17 19 20 21 21 21 22 25 26 27
13 10 11 12 11 9 7 5 5 7 7 7 8 7 7 6 6 6 6 6 6 5 4 4 4 4 5 5 5 10 14 14 13 15 18 19 19 20 20 22 24 25
22 12 9 10 12 13 11 8 6 5 7 7 8 8 8 7 6 6 6 6 6 6 5 5 5 4 5 5 5 7 12 14 13 12 15 16 17 17 15 16 21 23
25 15 8 7 11 14 14 14 10 6 5 7 8 8 8 8 7 7 7 7 7 6 6 6 6 6 5 5 5 5 8 13 13 12 13 13 13 13 12 12 14 15
36 26 15 6 7 11 14 14 12 10 7 5 6 8 8 8 8 8 7 7 7 6 7 7 7 7 6 5 6 5 6 9 12 13 13 12 11 11 12 12 11 11
42 40 31 20 13 10 12 14 13 11 10 7 6 7 7 8 8 8 8 8 7 7 7 7 7 7 7 6 6 6 6 6 8 11 12 14 13 13 12 12 12 11
41 43 43 40 31 16 9 12 14 13 12 9 7 6 6 7 8 8 8 8 7 7 7 7 7 7 7 7 6 6 6 6 6 7 9 11 13 14 15 14 14 13
50 50 48 45 40 28 17 12 12 14 14 12 10 8 7 7 7 7 8 8 7 7 7 7 7 7 6 6 6 6 6 6 6 6 6 8 10 13 14 15 15 15
66 62 54 47 44 40 30 18 12 12 14 13 12 10 9 8 8 8 8 8 8 7 7 7 7 7 7 6 6 5 5 5 6 6 6 6 7 8 11 13 14 15
77 70 60 53 49 42 29 16 10 9 11 12 11 11 10 10 9 9 9 8 8 8 8 8 7 7 7 6 6 6 5 5 5 5 5 6 6 6 7 9 10 12
78 73 65 59 54 43 28 18 11 8 8 9 10 10 11 10 10 10 9 9 9 9 8 8 8 8 8 7 7 6 6 5 5 5 4 4 5 6 6 7 8 9
76 75 72 66 59 47 35 26 18 11 8 7 8 9 10 10 10 10 10 10 10 10 9 9 9 9 9 8 8 8 7 7 6 6 6 5 5 4 5 5 6 7

ECMWFNIL_500_rhum_072.txt.gz
RH
12 14 15 15 15 12 10 9 8 7 7 7 7 6 6 6 6 6 5 5 6 6 6 7 7 7 8 8 9 9 9 9 9 9 10 10 11 11 11 12 12 12
11 13 14 14 14 14 12 10 8 7 7 7 7 6 6 6 5 5 5 5 5 5 5 6 6 6 7 8 8 9 8 9 9 9 9 9 9 10 10 10 11 11
11 11 13 15 16 15 14 12 10 8 8 8 8 8 6 6 6 5 5 5 4 5 4 4 5 5 6 7 7 8 8 8 8 8 10 13 14 15 13 12 10 9
11 11 12 14 15 16 15 13 12 10 9 9 8 9 8 6 6 5 5 5 4 4 4 4 4 4 5 6 7 7 7 8 10 14 19 22 23 23 21 18 15 12
11 11 11 12 14 15 15 14 13 11 9 10 9 8 8 7 6 6 5 4 4 4 4 4 4 4 5 6 7 7 8 11 17 24 27 27 26 25 25 23 20 17
13 11 9 10 12 13 16 15 14 12 10 9 9 7 7 6 6 6 5 5 5 4 4 4 4 4 4 5 6 8 12 18 24 28 28 25 24 23 23 23 21 19
14 13 10 9 10 11 14 16 14 13 11 10 8 7 6 6 5 5 5 6 6 4 4 4 4 4 4 5 7 11 17 23 27 27 25 22 21 21 21 23 22 21
13 13 11 8 9 9 11 14 15 14 13 11 10 8 7 6 5 5 5 6 6 5 4 4 4 4 5 6 9 14 21 25 26 25 22 20 21 21 21 22 22 23
12 11 11 8 8 8 9 11 13 14 14 13 12 11 8 7 6 5 5 6 6 5 4 4 4 4 5 7 12 18 23 25 24 22 20 21 22 22 22 23 23 24
9 9 10 9 9 9 8 9 10 11 12 13 13 12 10 9 8 6 6 7 7 6 5 4 4 4 6 8 14 21 24 24 22 20 21 23 23 23 23 24 24 24
6 7 7 8 9 10 9 9 8 9 10 11 12 12 11 10 9 8 8 8 9 9 8 6 4 4 6 9 16 21 24 23 21 21 22 23 23 23 24 25 25 26
6 5 6 6 8 10 10 9 8 8 8 9 10 10 10 10 9 9 9 10 10 10 10 9 6 5 5 8 15 21 24 22 21 21 23 24 24 25 26 26 27 27
9 6 5 5 6 8 10 10 9 8 8 8 9 9 9 9 9 9 9 10 10 10 11 9 7 6 4 6 12 20 23 22 20 22 23 24 26 27 28 28 29 29
11 8 5 5 5 6 9 10 10 9 8 8 8 8 8 8 8 9 9 9 9 9 10 9 7 6 5 5 9 16 22 21 20 22 24 25 28 28 29 30 31 31
11 10 7 5 5 5 7 9 11 10 9 8 8 8 8 7 8 8 8 8 9 8 9 9 8 6 5 5 6 11 18 21 20 21 24 25 27 28 29 29 31 33
11 10 9 7 5 5 6 7 9 10 9 9 8 7 7 7 7 7 7 7 8 8 8 8 8 6 6 5 5 7 13 19 20 20 22 25 25 26 27 28 29 31
10 11 10 8 6 5 5 6 7 9 9 9 9 8 8 7 7 6 7 7 7 7 7 7 7 6 6 5 5 4 8 15 19 19 20 23 25 25 26 26 27 29
6 8 9 10 9 7 6 6 6 7 8 8 9 9 8 8 7 7 6 7 7 7 7 6 6 6 6 5 6 4 5 10 16 18 19 21 23 24 25 25 25 27
12 10 7 7 9 9 8 7 6 5 7 7 7 8 9 8 8 8 7 7 7 7 7 7 7 7 7 5 6 5 4 6 10 14 16 18 20 22 24 24 23 24
36 27 14 7 7 9 8 8 7 6 6 7 7 7 8 8 8 9 8 8 8 8 8 8 8 8 8 7 6 6 5 4 7 10 12 14 17 19 21 22 21 21
58 46 27 13 8 7 8 8 8 8 7 6 6 6 6 8 8 8 9 8 8 8 8 8 9 8 8 8 7 6 6 5 4 6 9 11 13 15 17 17 17 17
74 64 44 28 16 8 8 8 7 8 8 7 6 6 5 6 7 7 8 8 8 9 8 8 9 8 8 8 8 7 6 6 5 5 6 8 10 12 14 14 14 14
82 76 60 49 35 18 12 14 10 7 8 7 7 6 6 6 6 7 8 8 8 9 8 8 8 8 8 8 8 8 7 6 6 5 5 6 7 9 11 13 13 13
85 82 73 64 51 31 23 26 23 13 8 7 7 7 6 6 6 6 6 7 8 8 8 9 8 8 8 8 7 7 7 6 6 6 6 6 6 6 8 10 12 13
89 85 78 70 58 39 28 31 32 22 11 7 7 8 8 7 7 7 6 6 7 7 8 9 9 8 8 8 7 7 7 7 6 6 6 6 6 6 6 7 9 10
91 89 82 75 66 51 38 37 40 36 24 12 6 7 8 9 9 9 8 7 6 6 7 7 8 9 8 8 8 7 7 7 6 6 6 5 6 6 6 6 6 7

ECMWFNIL_500_rhum_075.txt.gz
RH
18 20 17 14 13 12 11 11 10 10 11 13 14 13 11 10 10 10 9 8 7 8 8 8 8 8 8 8 8 8 9 9 9 9 9 10 10 10 10 11 11 11
16 18 18 16 13 12 11 10 10 8 8 9 10 9 8 7 7 7 7 7 7 7 7 7 7 8 8 8 8 8 8 8 8 9 9 9 9 9 10 10 10 10
14 16 18 18 15 13 12 10 10 9 8 8 8 7 6 6 6 6 6 6 7 7 7 7 7 7 8 8 8 8 8 8 8 8 8 8 8 8 8 8 9 9
12 13 16 19 18 15 12 11 10 9 9 8 8 7 6 6 6 6 6 5 6 6 6 6 6 6 6 6 7 7 7 8 8 7 7 8 10 10 10 9 9 8
10 12 13 16 18 18 16 14 12 9 9 8 8 8 7 6 6 5 5 5 5 5 5 5 5 5 5 5 6 6 6 7 6 7 10 14 17 17 16 15 13 11
10 10 11 13 15 18 19 18 15 12 10 9 8 8 8 8 7 5 5 5 4 4 4 4 4 4 4 5 5 6 6 6 7 11 16 19 20 20 19 17 15 13
11 10 10 11 12 16 19 19 17 15 13 11 9 9 9 9 8 7 6 5 4 4 4 3 3 3 4 4 5 6 7 7 11 16 20 20 19 19 18 17 16 14
12 11 9 10 10 13 16 18 18 16 15 14 12 11 10 9 9 8 7 6 5 4 4 3 3 3 3 4 5 6 8 10 14 19 20 18 18 18 18 18 17 16
12 12 9 9 9 10 13 15 17 17 15 14 14 12 10 9 9 8 7 7 6 5 5 3 3 3 3 4 5 7 10 13 15 18 19 18 18 18 18 19 19 19
12 13 10 8 8 9 10 12 15 16 15 15 14 12 11 10 9 8 8 7 6 6 6 4 4 4 3 4 5 7 12 15 16 17 18 18 18 19 19 19 20 20
12 13 12 9 8 8 9 10 12 13 14 15 14 13 12 10 9 8 8 7 7 7 6 5 4 4 4 4 4 8 13 17 17 17 17 17 18 20 20 21 21 22
10 12 12 11 9 8 8 8 9 11 12 14 15 14 13 11 10 9 8 7 8 7 7 5 4 4 4 4 5 7 13 18 19 18 17 17 19 20 21 21 22 23
8 11 12 12 11 8 8 8 8 9 10 12 13 14 14 13 11 10 9 9 8 8 8 6 5 4 4 4 5 7 12 17 19 19 18 18 19 20 21 22 23 24
7 8 9 11 11 9 8 8 8 8 8 10 11 12 13 13 12 11 10 9 9 9 9 8 6 6 5 4 4 5 10 16 19 20 19 19 20 21 22 23 23 25
9 8 7 8 9 10 9 8 8 8 8 8 9 10 11 11 11 11 9 9 9 9 10 9 9 9 7 6 5 4 7 12 17 20 19 19 20 21 23 24 25 26
9 9 7 6 6 7 8 8 8 8 8 8 8 8 9 10 10 10 9 9 9 9 10 10 10 10 9 8 6 5 5 8 14 19 20 20 20 21 23 25 27 27
6 8 8 6 5 5 5 6 7 7 7 8 8 8 8 8 9 9 8 8 9 9 9 10 10 10 10 9 7 6 5 5 9 15 19 20 20 21 24 26 27 28
8 7 8 7 7 6 5 4 5 6 7 7 7 8 7 7 8 8 8 8 8 8 9 9 9 9 9 9 8 7 6 5 5 9 15 20 20 20 22 25 26 27
19 7 6 8 8 7 6 5 4 4 5 6 7 8 7 7 7 7 7 7 7 7 8 8 8 8 8 8 8 7 6 5 4 5 9 15 19 20 21 23 25 26
40 20 8 4 7 8 7 5 5 4 4 5 6 7 7 7 7 7 7 7 7 7 7 7 7 7 7 7 7 7 6 5 5 4 5 9 15 19 20 21 23 24
59 43 25 10 7 9 9 8 7 5 4 4 5 6 7 7 7 7 7 6 6 6 6 6 6 7 7 7 7 6 6 5 5 4 4 5 9 14 18 20 21 22
70 63 49 34 24 17 11 8 9 8 7 6 4 5 6 7 7 8 7 7 7 6 6 6 6 6 6 6 6 6 6 5 5 4 4 4 5 9 13 16 19 20
78 76 68 58 47 32 15 6 7 9 9 9 8 6 5 5 6 7 7 7 7 6 6 6 6 6 6 6 6 6 6 5 5 4 4 4 4 5 8 11 14 17
78 81 83 75 63 50 35 21 14 11 9 8 9 9 7 6 6 6 6 7 7 7 7 7 7 7 7 7 7 6 6 6 6 5 4 4 4 4 4 7 10 13
75 79 87 87 78 66 55 44 34 25 17 10 8 9 9 9 7 6 6 6 6 6 7 7 8 8 8 7 7 7 7 6 6 6 5 5 6 5 4 5 6 9
72 76 79 85 86 76 67 62 56 47 35 19 10 8 8 9 10 9 8 7 6 6 6 6 7 8 9 8 8 8 8 7 7 7 7 6 7 6 6 6 5 6

ECMWFNIL_500_rhum_078.txt.gz
RH
19 15 11 15 20 21 19 17 15 15 16 14 14 15 13 11 10 8 7 7 6 6 5 6 6 6 6 6 6 6 6 6 6 7 7 7 8 8 8 8 8 7
20 17 13 13 16 16 15 16 15 14 14 14 15 15 14 13 13 11 8 6 6 6 6 6 6 6 6 6 6 6 6 6 6 6 7 7 8 8 8 8 7 7
18 19 15 14 14 14 13 12 13 13 12 13 14 14 13 11 11 10 8 7 6 6 5 6 6 6 6 6 6 6 6 6 6 6 6 7 7 8 8 8 7 7
15 18 17 15 14 14 13 11 11 10 10 11 11 11 10 8 7 7 7 6 6 6 6 5 5 6 6 6 6 5 6 6 6 5 5 6 6 6 7 7 7 7
12 15 17 17 15 13 13 11 10 9 8 9 8 8 7 6 6 6 6 6 6 6 6 5 5 5 5 5 5 5 5 5 5 5 5 6 6 7 7 7 7 7
10 12 14 16 16 14 13 11 11 9 9 8 7 8 7 6 6 5 5 5 5 5 5 5 5 5 5 5 5 5 5 5 5 5 5 6 9 11 11 11 10 9
9 10 10 13 16 17 15 13 11 10 9 8 8 8 7 7 6 5 5 4 4 5 4 4 4 4 4 4 4 5 5 5 6 5 5 8 13 15 14 13 12 11
8 9 9 10 13 16 17 16 13 12 10 9 9 8 8 8 7 6 5 5 4 4 4 4 4 4 4 3 3 5 5 6 6 5 7 12 16 16 14 13 12 11
7 8 8 9 10 12 16 17 16 14 12 11 10 9 8 8 8 7 6 5 5 4 4 4 4 3 3 3 3 4 5 6 7 7 11 16 17 16 15 14 13 12
7 8 8 8 9 10 13 15 16 16 15 14 12 10 10 8 8 8 7 6 5 4 4 4 4 4 3 3 3 3 4 6 7 10 14 18 18 16 16 16 15 15
6 8 9 8 8 9 10 13 15 15 15 15 14 13 12 11 9 8 8 7 6 5 5 3 3 4 3 3 3 3 4 5 8 12 15 18 19 17 17 17 17 17
7 8 8 9 9 8 8 10 12 14 15 14 14 14 13 12 10 9 8 8 6 5 5 4 4 4 3 3 3 3 4 5 8 13 15 17 19 18 17 18 18 19
6 8 8 9 9 8 8 8 9 11 13 14 13 13 13 12 11 10 9 8 7 5 5 4 4 5 4 3 3 3 4 4 7 13 17 18 18 18 18 18 20 20
8 7 8 10 11 9 7 7 8 9 10 12 12 12 12 11 10 10 9 8 7 6 5 5 4 5 5 4 4 4 3 4 6 11 16 18 19 18 18 18 20 21
26 14 7 6 9 11 10 8 6 7 8 9 10 11 11 11 10 9 9 8 8 6 5 5 5 6 6 5 4 4 4 4 5 8 13 18 20 20 19 19 20 21
44 35 23 13 8 8 11 11 8 7 7 7 8 9 10 10 10 9 9 8 7 7 6 5 5 6 7 7 6 4 4 4 4 6 10 15 20 21 20 20 20 21
48 39 29 20 14 9 8 10 11 9 7 6 6 7 8 9 9 9 9 9 7 7 6 5 5 6 7 7 7 5 5 5 4 4 6 10 16 20 22 21 20 20
60 46 30 18 14 13 10 8 9 10 10 9 7 7 6 7 8 8 9 9 8 7 7 6 6 7 7 7 7 6 6 6 5 5 4 5 9 15 20 21 20 20
70 61 50 33 16 9 9 8 7 7 8 9 9 8 8 6 7 7 7 8 8 7 7 7 7 7 7 7 6 6 7 7 6 6 5 4 5 9 14 19 20 20
79 71 65 58 39 18 7 6 8 8 8 7 7 7 7 7 7 7 7 7 7 7 7 7 7 8 8 7 7 7 7 7 7 6 6 5 4 4 7 13 18 20
92 84 75 70 61 44 23 8 5 8 8 8 7 6 5 6 6 7 7 7 7 7 7 7 7 7 8 8 7 7 7 7 7 7 7 6 6 5 4 7 11 16
89 89 86 80 74 65 48 25 10 6 7 8 8 7 6 5 4 4 6 7 7 7 7 7 7 7 7 8 8 7 7 7 7 7 7 7 7 6 4 4 5 9
82 84 86 86 81 75 67 52 29 11 6 5 6 8 9 8 7 5 4 5 6 7 7 7 7 7 6 7 7 7 7 7 7 7 7 7 7 6 5 5 4 5
80 82 83 85 85 78 74 71 57 37 23 14 8 7 9 10 10 8 6 5 4 5 7 7 7 7 7 6 7 6 6 6 6 6 6 6 6 6 6 5 4 4
75 74 79 86 89 83 78 77 71 63 54 43 29 18 12 11 12 10 12 15 10 4 4 7 7 8 8 7 7 7 6 6 6 6 6 6 7 7 6 6 5 5
83 71 70 77 83 84 84 83 79 76 73 65 55 43 28 17 11 11 19 28 25 13 6 5 5 7 8 8 8 8 7 6 6 6 6 6 7 7 7 7 6 6

ECMWFNIL_500_rhum_084.txt.gz
RH
11 12 17 21 20 19 21 23 23 20 16 12 11 11 9 12 19 19 8 4 5 4 5 4 3 8 9 5 5 7 6 4 5 5 5 6 6 7 7 6 7 7
11 10 15 19 19 20 21 22 23 20 15 13 13 11 9 9 11 9 4 4 5 3 4 4 4 4 5 6 5 6 6 5 5 6 5 6 7 6 7 6 6 6
11 10 12 16 17 19 21 22 22 18 14 14 13 10 8 7 6 6 5 4 4 4 4 4 5 3 5 9 7 7 9 7 6 6 5 5 6 6 7 6 6 5
10 10 11 14 15 18 19 21 22 18 13 11 10 8 6 6 6 5 4 4 3 4 4 3 5 4 4 9 10 8 9 8 6 6 5 5 6 6 6 6 6 6
9 9 11 12 12 15 18 21 22 18 13 10 10 9 6 5 5 4 4 4 3 3 3 3 4 4 3 7 9 8 9 8 5 5 6 6 6 6 6 6 6 6
10 8 10 12 12 12 14 19 22 19 14 11 10 9 8 6 6 5 4 3 3 3 3 3 3 4 3 5 5 5 8 10 6 5 6 6 6 6 7 6 6 6
10 9 10 10 11 12 11 14 19 20 16 13 12 10 8 8 6 6 5 4 3 3 3 3 3 3 3 3 5 4 5 8 8 6 5 5 6 7 8 8 8 7
9 8 10 10 11 11 11 11 14 18 16 13 13 11 9 8 6 6 4 3 3 3 3 3 2 3 3 2 4 4 4 5 7 6 6 6 6 7 10 11 10 9
8 9 8 8 11 11 11 11 11 14 15 14 13 11 10 8 7 6 4 3 3 3 3 3 3 3 3 3 3 3 4 5 5 7 8 8 6 8 12 12 11 11
3 8 9 7 9 9 10 12 11 11 13 13 13 11 10 9 7 6 5 4 4 3 3 3 3 3 2 3 3 3 4 4 5 6 8 7 6 8 12 13 12 11
14 5 6 8 8 8 9 10 11 12 11 12 12 11 10 9 7 6 6 5 4 3 4 3 2 3 3 3 3 3 3 3 4 6 7 7 7 9 12 13 12 12
58 30 11 7 6 7 9 8 9 10 11 11 12 12 11 9 8 7 6 6 5 3 3 4 3 3 3 3 3 3 3 3 3 4 6 7 8 9 11 12 13 14
76 59 41 28 15 8 7 8 9 10 10 12 12 11 12 10 9 9 7 6 6 5 4 4 4 3 3 3 3 3 3 3 3 3 4 6 8 9 11 11 12 14
65 68 78 70 48 28 13 6 9 13 12 14 14 11 12 12 11 10 10 8 6 6 5 4 5 4 3 3 2 2 3 2 3 3 3 4 6 8 11 11 11 13
66 74 90 86 73 59 32 9 6 12 15 15 14 12 10 12 14 12 11 11 9 8 7 6 6 5 4 4 3 2 3 2 3 3 3 3 4 6 10 11 11 12
66 73 81 78 80 77 56 34 20 11 10 11 14 18 13 8 12 13 11 13 12 10 10 8 7 7 6 5 4 3 3 2 2 3 3 3 3 4 6 9 11 12
70 75 78 75 82 84 75 66 50 25 14 12 13 22 21 9 8 10 9 12 12 10 11 9 8 9 7 7 6 4 4 3 2 3 3 3 3 3 4 6 8 11
78 79 77 72 80 84 76 75 70 54 45 37 30 31 23 12 14 14 8 9 10 8 10 10 10 10 9 9 8 6 6 4 3 3 3 3 4 3 4 4 5 7
83 81 77 72 78 83 77 72 69 66 66 62 56 52 40 30 32 27 15 11 11 9 9 8 10 12 11 11 10 9 8 6 5 5 4 4 4 4 4 4 4 5
86 84 80 76 78 86 87 81 72 73 81 76 65 62 58 52 47 37 27 21 14 11 12 9 8 10 10 11 12 11 11 9 7 6 5 4 4 4 5 5 5 5
81 81 81 82 85 89 92 88 81 83 90 83 69 63 60 56 53 48 45 40 26 16 13 11 9 9 8 9 10 11 12 11 9 8 7 7 6 5 5 5 5 6
78 78 81 85 88 89 89 89 87 87 88 84 78 73 65 59 55 49 46 50 48 36 22 14 11 10 9 8 8 9 10 10 9 8 7 8 8 8 7 7 6 6
74 78 82 82 80 81 84 91 94 93 93 90 83 77 72 67 65 55 43 43 52 52 38 23 14 10 10 10 8 8 8 9 8 8 8 8 8 9 8 8 8 7
68 74 79 78 75 73 78 88 96 98 98 92 84 81 80 75 73 70 57 45 46 54 51 37 23 16 12 9 9 9 8 8 8 7 7 7 7 9 9 8 8 8
62 65 67 68 69 71 75 83 90 97 100 96 90 91 90 83 78 77 71 60 55 56 53 41 33 33 24 11 10 12 7 6 9 8 7 8 6 6 8 8 8 8
58 60 60 60 61 64 69 74 79 87 93 94 93 94 92 89 87 82 76 71 64 62 57 45 37 39 34 24 26 28 17 8 6 5 5 7 8 7 7 7 7 8

ECMWFNIL_500_rhum_087.txt.gz
RH
12 15 17 23 26 22 24 25 27 30 22 13 16 21 17 15 18 14 7 7 7 6 7 6 10 14 9 6 7 6 5 5 6 6 6 6 6 6 6 7 9 9
12 15 15 20 26 23 21 24 26 27 23 15 12 12 10 13 18 13 6 5 5 5 5 4 6 8 6 5 6 6 5 5 6 5 6 7 6 7 6 6 7 8
12 14 15 17 22 24 22 24 26 27 23 16 14 13 11 12 12 9 5 5 4 4 4 4 4 5 6 7 6 6 6 5 6 6 6 6 7 7 6 6 6 7
11 12 14 16 19 21 23 24 26 27 22 17 17 15 11 11 10 8 6 5 4 4 4 4 5 4 7 9 9 9 9 7 7 6 5 6 7 6 6 6 5 6
11 11 12 14 17 19 20 24 26 27 22 16 17 17 12 10 9 7 7 6 5 4 4 4 5 4 5 9 11 10 10 8 6 6 6 6 6 6 6 7 6 6
11 11 12 13 15 16 17 20 25 27 23 16 15 15 11 10 9 7 7 6 5 4 4 4 4 4 4 8 11 9 9 8 5 6 7 5 6 6 6 6 6 6
11 10 11 12 14 16 15 16 21 26 25 18 14 14 12 10 10 8 7 6 5 4 4 3 4 4 3 5 6 6 9 10 6 5 6 6 6 7 7 7 6 6
10 10 11 11 12 15 14 14 16 22 26 21 15 14 13 11 10 10 8 6 5 4 4 4 4 4 4 4 4 4 6 8 8 6 5 6 7 8 8 8 8 8
7 9 10 10 11 13 15 14 13 17 23 23 18 15 14 12 11 10 9 7 5 4 4 4 4 4 4 3 4 4 4 5 7 7 5 6 7 8 10 10 9 9
13 9 9 9 10 11 13 14 13 13 18 20 20 17 15 13 12 11 10 8 6 4 4 4 3 3 4 3 3 3 4 5 5 6 7 8 7 7 11 12 11 10
25 13 7 8 10 10 11 14 14 13 14 16 18 17 15 14 12 11 10 8 7 5 4 4 4 3 3 3 3 3 3 4 4 5 7 8 7 6 10 12 11 11
35 31 21 10 8 10 9 11 13 14 14 14 15 15 15 14 13 11 10 9 7 6 5 4 4 4 4 3 3 3 3 3 3 4 6 7 7 6 9 12 12 12
41 52 42 16 7 10 10 9 10 13 14 14 14 14 13 13 12 11 10 9 8 7 6 6 4 4 4 4 3 3 3 3 3 3 4 5 8 8 9 11 12 13
51 62 57 30 12 15 23 21 11 8 11 13 13 14 14 14 13 12 11 10 9 8 7 6 6 6 5 5 5 3 3 3 3 3 3 3 5 7 9 10 12 13
68 72 74 57 34 26 34 37 25 13 8 9 11 12 14 15 14 14 13 12 11 10 9 8 7 7 7 7 6 5 4 4 3 3 3 3 4 5 7 10 12 13
81 79 80 74 58 41 39 46 43 27 10 7 10 12 16 18 18 16 16 16 16 14 13 13 12 11 10 9 8 8 7 6 5 4 4 4 4 3 4 7 10 13
83 80 79 78 71 56 49 54 58 46 27 15 8 10 17 20 19 18 17 16 17 18 17 18 17 16 14 13 12 10 9 8 7 6 5 4 5 4 4 4 7 11
87 86 86 83 75 66 64 69 70 65 56 39 18 10 14 15 14 18 19 15 13 14 16 18 19 18 16 15 14 12 11 10 9 7 7 5 5 5 5 5 4 6
98 97 94 88 76 68 72 79 78 75 77 69 47 26 14 9 10 15 18 19 16 14 14 14 14 14 14 15 15 14 12 11 10 9 8 7 7 6 5 6 5 5
100 99 97 93 84 75 75 80 80 81 86 86 75 57 39 31 29 26 24 22 17 14 17 17 13 11 10 11 13 14 14 13 12 11 10 8 8 8 7 8 7 7
99 97 95 96 95 90 87 84 80 80 83 82 81 76 66 59 56 53 49 41 28 20 21 19 16 15 13 11 10 11 12 12 11 11 11 11 11 10 10 10 9 9
92 93 93 93 92 91 92 90 84 80 79 77 75 72 67 68 70 67 63 59 50 40 33 29 28 23 14 9 9 8 8 9 10 10 9 9 10 12 12 12 11 10
85 90 94 93 89 86 89 94 93 90 86 81 79 76 74 78 80 72 62 60 59 53 48 48 45 33 21 17 14 10 9 9 6 8 11 12 10 10 11 11 12 12
82 84 85 86 86 86 85 86 90 94 95 90 88 87 85 85 85 78 70 66 64 59 56 56 50 43 44 45 34 22 22 24 20 16 16 14 9 8 10 11 10 11
78 79 78 76 76 76 77 79 83 88 91 91 92 94 95 93 90 86 83 79 73 66 62 57 49 46 54 63 60 51 49 52 52 45 37 29 19 9 8 10 10 10
65 70 73 73 70 68 69 74 80 84 87 87 89 94 99 100 98 94 91 87 81 74 69 63 58 56 58 64 71 72 68 62 58 57 62 65 55 32 13 7 7 9

ECMWFNIL_500_rhum_093.txt.gz
RH
18 23 26 26 24 23 28 30 21 19 22 20 22 21 13 10 12 12 10 9 9 9 10 10 7 7 7 7 7 7 7 7 7 7 7 8 10 13 14 15 14 13
14 20 25 26 25 24 27 27 21 23 25 20 20 20 15 10 9 10 10 10 11 11 9 10 10 10 8 6 6 6 7 7 6 7 7 7 9 11 12 12 13 13
11 15 22 25 24 23 26 27 24 27 30 29 27 24 17 12 8 8 9 10 13 13 11 13 15 12 8 7 6 6 6 7 6 6 7 7 7 8 9 10 12 13
11 12 17 22 25 24 24 26 25 25 25 28 34 31 21 15 11 7 8 9 10 11 11 14 15 12 8 8 7 6 6 6 7 6 7 7 7 7 7 8 10 12
11 11 13 18 23 25 25 24 24 25 21 20 29 31 24 21 16 7 7 7 6 7 8 9 10 8 7 7 7 6 6 6 7 7 6 7 7 7 7 7 8 10
11 11 11 14 20 24 26 24 23 25 23 18 20 22 22 25 21 9 6 7 5 6 6 6 7 6 6 7 6 7 7 6 6 6 6 7 7 7 7 7 7 8
10 11 11 12 16 21 24 25 23 23 25 21 18 16 17 22 21 11 6 7 6 6 5 5 5 5 6 8 9 9 9 8 7 7 7 7 7 8 7 7 7 7
8 9 11 11 13 17 21 24 24 23 24 24 20 16 15 17 17 11 7 6 6 5 5 5 5 5 6 8 10 10 10 10 8 7 7 7 7 7 8 8 7 7
8 7 9 12 12 14 18 22 24 24 25 25 22 18 16 15 13 11 8 7 6 6 5 5 5 5 5 6 10 12 11 10 9 7 6 7 7 7 7 8 8 8
9 9 8 11 13 14 15 18 21 23 24 26 24 20 18 16 14 11 9 7 6 5 5 5 5 6 6 5 8 10 9 8 9 9 8 7 7 7 7 8 8 8
8 10 10 9 12 14 14 16 18 20 22 24 27 24 19 17 15 12 10 8 6 5 4 5 5 5 6 5 5 6 6 6 7 9 9 8 7 6 7 8 8 9
15 8 10 9 9 11 13 15 17 18 18 20 24 27 24 18 15 14 11 9 7 6 4 4 5 5 5 5 5 5 5 5 5 6 7 8 7 7 7 8 8 9
44 20 10 8 9 10 11 12 15 17 18 17 19 24 27 23 18 15 14 12 9 7 5 4 4 5 5 5 5 5 4 4 5 5 5 6 7 7 7 7 8 9
79 55 31 14 8 8 10 11 13 14 17 17 16 18 23 26 22 18 17 15 13 10 7 6 5 4 5 5 5 5 4 4 4 4 5 5 6 6 7 8 8 8
90 80 62 40 22 11 7 9 11 13 14 16 16 16 17 22 23 21 19 18 17 15 11 9 7 5 5 5 5 5 5 4 4 4 4 4 5 5 6 7 8 7
91 87 79 65 46 25 12 8 8 9 12 13 14 15 15 17 19 20 19 18 18 17 16 13 11 8 7 6 5 5 5 5 5 5 4 4 4 4 4 5 6 7
92 89 87 80 67 50 36 27 17 11 11 11 12 14 14 14 16 16 17 17 16 16 16 15 13 10 8 8 7 6 7 7 7 6 6 6 5 5 5 4 4 5
92 91 91 89 82 70 60 53 41 26 17 11 9 11 13 13 14 15 15 15 15 15 14 13 13 12 10 9 8 8 8 8 8 8 8 8 8 7 6 6 5 5
94 94 94 93 88 80 70 64 55 41 29 20 13 9 10 11 12 13 14 14 14 14 14 13 13 12 12 11 10 9 9 8 8 8 7 7 7 7 7 6 6 5
95 98 98 95 90 85 78 72 65 53 40 35 29 16 8 8 10 10 11 13 13 13 13 13 14 13 13 13 12 11 10 10 9 9 9 8 8 7 7 6 6 5
96 97 98 96 91 87 83 79 77 68 54 49 43 26 12 11 13 12 10 9 10 11 12 13 13 14 13 13 13 13 12 11 12 12 12 12 11 10 9 8 7 6
95 92 95 97 95 93 90 84 80 75 66 58 49 36 25 19 19 23 24 16 10 8 11 13 15 15 15 15 14 14 13 13 14 14 13 13 12 11 10 8 7 6
90 91 95 98 96 94 92 86 81 76 70 65 60 57 52 43 36 41 46 39 26 13 8 11 14 14 15 16 15 15 14 13 13 13 13 13 13 12 10 9 8 7
77 81 89 95 95 92 89 87 85 82 78 79 81 83 82 74 66 65 65 60 50 34 21 17 16 14 13 12 13 15 15 14 13 12 11 12 12 11 10 10 10 9
65 65 74 84 89 91 90 90 92 92 93 95 96 96 96 93 89 88 87 80 70 59 48 42 39 36 29 20 16 17 18 17 16 15 13 12 11 10 10 9 10 10
46 52 61 70 76 82 85 87 88 90 94 98 100 100 99 97 96 98 99 94 84 75 72 71 71 69 62 54 51 49 44 37 32 28 25 22 18 14 11 11 11 11

ECMWFNIL_500_rhum_096.txt.gz
RH
20 22 23 23 27 29 29 32 32 26 27 31 30 26 20 16 15 12 10 9 7 7 6 6 7 7 7 7 7 7 7 7 7 8 8 9 10 11 13 12 12 13
17 21 23 23 25 25 23 28 34 27 23 29 32 26 18 14 14 12 10 9 8 7 8 8 7 6 7 7 7 7 6 7 7 7 8 9 10 13 15 15 13 13
14 19 23 24 24 23 20 24 32 27 19 22 26 24 18 13 12 11 9 9 9 8 9 10 8 6 7 6 6 7 7 7 7 7 7 8 10 12 14 14 14 14
13 15 21 25 24 24 22 22 26 24 19 19 20 19 17 12 10 11 10 9 9 9 9 9 9 9 8 7 6 6 6 7 7 7 7 7 8 9 10 11 12 14
11 13 16 22 26 26 23 22 22 20 20 24 22 19 17 13 10 9 10 10 11 12 11 9 11 12 9 7 7 7 6 6 7 7 7 7 7 8 8 9 10 12
9 11 13 17 23 26 25 23 23 20 20 23 24 23 22 18 12 9 9 10 12 14 13 12 13 13 9 7 8 8 7 6 6 7 7 7 7 7 7 7 8 10
9 9 11 13 17 23 26 24 24 23 22 22 20 20 23 22 17 12 9 9 11 12 11 10 11 10 8 6 6 7 7 6 6 7 7 7 7 7 7 7 7 7
11 9 9 11 12 17 22 25 25 24 23 23 21 17 18 20 20 18 13 8 8 9 7 7 8 7 6 6 6 7 7 7 7 7 7 7 7 7 7 7 7 7
10 11 10 10 11 13 17 21 24 25 23 23 23 20 17 15 15 18 17 11 7 6 6 6 6 6 6 5 7 9 9 9 9 8 8 7 7 7 7 7 7 7
8 11 12 12 11 11 13 17 21 24 25 24 23 23 22 17 14 15 16 13 9 6 5 6 6 6 5 5 7 9 10 11 10 9 9 7 7 7 7 7 7 7
6 10 13 13 13 12 12 14 17 22 25 25 25 25 25 23 18 15 15 13 10 8 6 5 5 5 5 5 6 8 10 12 12 10 9 8 8 7 7 7 7 8
8 6 11 13 13 12 12 13 14 18 23 25 26 27 28 28 24 19 17 16 12 10 7 6 6 5 5 5 5 6 8 10 10 9 8 9 9 8 8 7 7 8
33 11 8 12 14 12 12 13 14 15 19 22 24 25 26 29 28 23 19 17 14 11 9 8 6 5 5 5 5 5 5 6 7 6 6 7 8 8 8 8 8 7
71 38 14 7 11 13 11 11 14 15 17 19 21 23 24 27 30 27 21 17 15 13 11 9 8 7 6 5 5 5 4 5 5 5 5 5 5 6 6 7 7 7
93 77 47 19 10 12 12 11 12 14 15 17 19 19 20 23 27 29 25 19 15 13 12 12 11 9 7 6 5 5 5 5 5 5 5 5 5 5 5 6 6 6
95 97 86 59 32 17 12 11 11 12 13 15 18 19 19 19 22 27 29 24 19 15 14 14 13 11 9 8 7 6 5 5 5 5 5 5 5 5 5 5 5 5
93 97 99 88 66 43 27 17 11 11 13 13 14 17 18 18 18 20 26 27 23 19 16 15 15 14 11 10 9 8 7 6 5 5 5 5 5 5 5 4 4 5
98 99 99 97 90 77 62 44 23 11 10 13 14 15 15 17 18 17 19 24 25 23 20 18 16 14 13 11 10 9 8 7 6 5 5 5 5 5 5 4 4 4
99 100 100 100 98 94 89 81 61 36 19 11 10 12 13 12 15 17 15 17 22 23 22 21 19 16 15 12 11 10 8 8 7 6 6 6 6 6 5 5 5 4
96 99 100 101 100 98 98 98 90 75 58 37 23 26 28 18 11 15 17 16 17 19 20 21 20 18 17 15 13 11 9 8 8 8 8 8 7 7 7 6 6 6
94 97 100 100 100 101 100 98 95 94 94 83 66 61 61 44 19 10 12 15 16 16 17 18 19 18 18 16 15 13 11 10 9 9 9 10 9 9 9 9 8 8
91 93 97 99 100 100 100 100 99 98 101 101 93 84 80 71 49 25 14 11 12 14 15 16 17 17 17 17 16 15 14 12 11 11 10 10 10 10 10 10 9 9
85 87 93 98 100 100 100 100 101 101 99 99 100 95 88 84 75 59 41 22 11 10 12 12 13 14 15 16 16 15 15 14 13 13 13 12 12 12 12 12 12 12
80 86 91 96 97 98 99 98 98 99 100 98 99 100 96 88 80 76 68 49 27 14 10 10 13 14 12 12 13 12 13 15 14 14 14 14 14 14 14 14 15 14
68 77 80 82 86 90 94 97 97 97 99 101 100 99 99 95 87 83 81 71 50 30 21 24 30 32 32 33 32 23 14 13 17 17 16 17 16 16 16 14 13 13
47 53 58 63 72 79 84 89 95 99 99 100 100 100 100 98 96 94 92 88 76 59 49 51 55 56 58 62 62 48 27 18 18 16 14 14 14 14 15 14 14 15

ECMWFNIL_500_rhum_102.txt.gz
RH
22 24 24 25 30 35 35 33 30 30 31 30 28 27 24 21 19 16 12 8 5 5 5 6 7 6 5 5 6 6 6 7 8 10 11 11 12 11 12 14 16 18
20 22 22 22 24 29 34 33 32 32 32 29 26 25 24 20 19 17 14 10 7 6 5 6 6 6 5 5 6 5 6 6 7 8 10 10 10 10 10 12 14 16
17 19 21 21 21 24 27 29 31 34 33 30 26 25 25 21 19 18 15 12 8 7 6 6 6 6 6 6 6 6 6 6 7 7 8 9 9 10 10 11 12 13
13 16 19 20 21 22 23 24 27 30 32 30 27 24 23 23 22 19 16 13 10 7 6 6 6 6 7 7 7 7 6 6 7 7 7 8 8 9 11 12 13 12
12 13 16 18 20 21 22 23 26 27 28 29 29 25 22 21 23 21 17 13 11 9 7 6 7 6 7 7 7 7 6 6 7 7 6 7 7 8 10 12 12 12
11 12 13 15 19 21 22 22 24 25 25 27 29 27 22 19 20 21 18 14 11 10 9 8 7 7 8 8 8 8 7 6 7 7 7 7 7 7 7 8 9 9
10 11 12 13 16 19 22 22 23 24 22 24 27 25 20 18 18 18 17 14 12 10 10 9 8 10 11 11 11 10 8 7 8 8 7 7 7 7 6 6 7 7
10 10 10 11 13 16 19 22 24 24 22 23 26 24 20 18 18 18 16 15 12 10 9 9 10 13 14 13 14 14 11 8 9 10 8 7 6 7 7 6 7 7
10 11 10 10 11 12 15 20 23 25 24 23 23 23 22 21 21 21 19 17 14 11 9 10 10 12 13 13 14 15 12 8 8 9 7 7 7 7 7 6 7 7
7 9 10 11 12 11 11 15 19 23 24 24 23 22 21 22 22 21 18 18 17 13 10 9 10 10 10 11 10 11 11 8 7 7 7 8 9 8 8 7 7 7
7 7 8 9 11 12 11 11 13 17 21 24 24 22 21 21 22 22 18 16 17 17 13 10 9 9 8 8 7 7 7 7 7 8 9 11 12 11 10 8 8 7
7 6 7 8 9 11 12 11 10 11 14 19 22 24 24 22 22 23 21 17 15 16 16 15 13 11 8 7 7 6 6 6 7 8 10 12 14 14 11 10 9 8
19 12 6 4 6 8 10 11 11 11 11 13 16 20 23 25 24 24 24 22 19 16 14 16 17 15 11 9 8 7 6 6 7 8 8 10 13 13 12 10 9 9
58 48 32 15 6 5 8 10 10 11 10 10 12 14 18 23 25 26 26 25 23 20 17 15 17 17 14 11 9 8 7 6 7 7 6 6 8 10 10 9 9 9
78 77 70 49 24 8 5 7 9 11 12 11 10 11 13 17 21 25 27 27 26 25 22 19 17 16 15 13 11 9 7 6 7 7 6 5 5 6 7 7 7 7
77 77 81 77 61 39 21 11 7 7 10 12 12 10 9 11 15 20 24 27 27 27 27 25 21 18 16 15 13 10 8 7 6 6 6 5 5 5 5 6 6 6
86 81 84 90 91 83 67 49 34 21 12 9 10 12 12 10 10 13 18 22 26 27 27 28 27 23 19 17 16 13 10 7 7 7 6 6 6 5 5 5 5 5
97 92 94 98 99 99 96 89 79 66 49 32 16 9 11 12 11 11 12 16 21 24 25 28 31 29 24 20 18 15 12 9 7 8 7 6 6 6 5 5 5 5
97 98 98 100 100 100 100 99 97 93 88 77 57 32 15 9 10 11 11 11 14 17 21 24 27 28 27 26 23 18 15 13 10 10 9 7 6 6 6 5 6 6
91 96 97 97 98 99 100 100 100 99 98 98 94 77 52 29 16 11 10 10 11 13 16 18 22 25 26 27 27 24 20 16 14 13 12 9 8 7 7 7 7 8
93 95 97 97 98 99 100 100 100 100 100 100 100 99 92 76 59 40 23 12 10 12 13 14 18 23 25 25 27 28 27 23 19 17 15 13 12 11 11 11 10 10
93 93 94 95 98 99 98 99 100 100 100 100 100 100 100 99 95 83 61 35 17 11 10 12 15 18 20 22 23 23 26 26 25 23 19 17 16 15 15 14 12 12
88 91 92 94 96 97 97 99 100 99 100 100 100 99 100 100 100 98 92 75 52 32 18 12 14 15 15 17 18 19 20 22 24 25 24 22 20 19 18 17 15 15
85 90 91 91 91 91 94 96 97 98 100 100 98 97 98 100 97 95 98 97 89 75 51 25 15 16 16 17 17 16 17 19 20 21 22 23 23 22 21 20 19 18
69 77 85 91 92 89 90 95 98 99 99 99 98 97 97 99 98 97 98 98 99 98 83 55 32 20 14 16 18 18 20 21 20 19 19 20 21 22 21 21 21 22
48 53 65 80 89 91 92 95 99 100 100 100 98 97 98 98 98 98 99 97 98 100 94 81 66 46 26 17 16 18 21 23 20 18 17 17 19 18 19 21 20 19

ECMWFNIL_500_rhum_105.txt.gz
RH
36 40 37 32 31 32 32 34 36 34 31 34 38 31 22 20 17 14 12 8 6 5 5 6 7 6 5 5 5 5 6 7 8 11 12 13 14 13 13 15 16 18
24 27 29 29 29 30 30 31 32 29 27 28 31 32 28 21 17 15 14 11 7 5 5 5 6 7 5 5 5 5 5 6 7 7 9 11 13 12 11 12 14 16
18 20 21 23 28 33 33 31 28 26 32 31 24 27 31 24 19 16 15 14 10 7 6 5 5 7 6 6 8 7 5 5 6 7 6 8 10 10 9 9 11 12
15 17 18 19 25 31 31 33 33 28 27 27 23 24 28 28 26 21 15 15 12 9 8 7 6 7 7 8 8 7 6 5 5 6 7 7 7 8 9 10 11 12
13 14 17 18 20 23 25 28 36 39 32 24 23 27 27 25 26 24 18 15 12 10 8 6 6 7 9 10 9 10 11 8 6 5 5 7 8 7 8 9 12 12
11 12 14 16 18 20 21 20 26 38 39 29 25 29 31 27 22 21 21 17 12 9 8 9 8 6 8 11 8 10 13 10 11 14 8 6 8 7 6 7 9 10
10 11 11 13 16 17 20 19 19 25 30 34 38 34 30 28 24 22 22 19 14 10 10 13 12 8 18 27 16 7 11 9 11 21 18 10 7 6 6 6 6 6
8 10 9 10 12 13 16 18 19 20 20 27 37 35 28 27 28 26 23 20 15 11 10 11 10 9 24 38 25 10 12 11 10 19 21 14 8 6 7 6 6 6
9 9 8 9 10 10 14 15 17 20 20 19 23 26 29 29 28 28 26 23 18 14 12 10 9 9 13 23 21 16 18 16 14 19 19 12 7 7 7 6 6 7
8 9 9 9 10 8 10 12 14 16 19 21 19 19 24 26 26 26 26 26 22 17 16 14 10 9 8 11 14 14 16 16 15 16 14 11 8 6 7 7 6 6
10 10 9 8 10 9 8 9 10 12 14 19 21 20 21 21 21 22 24 27 25 19 19 19 14 10 8 9 11 11 12 12 12 11 9 8 7 7 8 8 7 6
18 12 9 8 8 8 9 8 8 10 10 12 16 19 22 22 22 21 20 23 25 22 20 21 22 20 12 7 7 8 8 7 6 7 8 6 7 10 11 10 9 8
25 19 12 9 8 6 8 9 8 9 9 9 10 13 17 20 23 23 22 21 22 23 22 21 25 28 24 18 12 7 7 7 6 4 6 7 8 10 12 12 11 9
28 26 19 14 11 7 5 6 8 9 9 9 9 10 11 13 17 21 23 23 22 23 25 23 24 29 36 35 23 11 7 5 6 6 5 6 7 8 10 12 12 10
43 40 39 36 31 24 16 8 5 6 8 9 9 9 10 10 11 14 18 22 23 24 24 26 30 36 45 40 26 24 24 12 6 8 6 5 7 6 6 8 9 10
64 61 61 62 62 61 52 35 19 7 4 6 8 9 10 9 8 9 10 14 19 22 22 26 29 34 45 45 32 34 39 21 7 9 7 6 7 6 6 6 5 7
76 70 68 70 73 77 77 71 56 34 15 7 4 5 8 9 9 9 9 9 11 14 20 28 27 23 33 42 31 25 26 17 11 12 7 6 7 6 5 5 3 4
90 81 76 76 77 78 81 84 83 72 56 40 27 17 11 8 7 7 7 10 10 8 13 25 30 23 25 31 26 22 23 20 17 15 10 9 8 5 5 5 5 6
97 91 88 90 91 90 89 88 89 90 90 85 75 62 51 42 32 20 11 7 8 9 14 20 22 21 24 27 27 27 26 24 22 19 16 12 8 7 7 5 5 5
91 90 92 96 97 97 98 96 94 95 97 99 98 93 90 87 78 65 48 30 14 6 9 12 10 13 22 25 25 28 29 29 28 23 19 16 11 10 8 7 12 16
87 89 92 93 93 94 95 96 97 99 99 100 99 99 100 99 98 94 87 77 56 32 26 29 21 15 19 20 18 23 28 30 29 26 26 25 19 13 10 11 22 26
81 85 87 89 92 92 91 92 95 97 98 99 96 95 99 99 99 100 98 99 94 76 70 76 64 36 22 18 15 17 21 26 28 25 27 34 32 24 17 16 22 22
69 69 71 77 86 90 89 89 93 94 97 100 96 94 98 99 99 100 99 99 102 97 92 96 90 66 39 21 15 16 16 19 23 22 26 37 38 28 22 30 44 46
57 55 53 57 72 88 91 90 93 95 97 100 100 98 99 98 97 99 100 98 100 101 99 96 94 88 68 40 27 27 20 14 20 22 24 37 43 37 35 40 50 57
51 49 44 44 59 82 90 89 92 96 96 97 97 97 99 99 98 98 100 99 98 99 101 100 96 97 90 71 59 52 30 13 17 19 18 34 52 58 58 54 48 54
51 49 46 42 47 57 64 69 77 86 93 96 95 94 95 95 96 98 99 100 101 100 100 99 98 99 97 87 82 76 49 19 15 18 17 25 39 53 66 65 58 59

ECMWFNIL_500_rhum_108.txt.gz
RH
49 52 53 53 55 57 54 49 45 43 40 36 37 33 23 19 16 11 8 5 4 6 6 9 8 5 7 5 4 7 9 11 16 16 15 16 18 18 18 20 17 17
49 53 55 58 61 55 49 50 49 45 45 44 42 39 33 27 21 14 12 8 5 5 4 8 9 6 6 6 5 5 6 7 8 11 14 13 15 17 16 20 20 15
33 42 53 58 54 49 47 50 49 44 44 40 36 37 35 35 30 20 16 13 8 6 7 8 7 6 5 6 9 9 6 6 5 10 18 15 11 14 14 17 20 18
17 24 41 45 40 43 47 49 49 42 39 40 43 43 35 35 41 34 21 15 10 8 10 10 7 7 6 7 15 13 7 9 8 7 15 17 10 10 11 13 16 20
13 15 23 26 28 32 35 44 50 43 38 41 46 44 38 35 41 42 33 24 16 12 14 15 10 9 8 8 15 14 9 12 10 5 9 11 8 8 9 10 12 14
11 14 14 16 20 20 24 38 45 42 42 45 43 41 39 36 35 36 37 33 23 13 16 22 18 13 12 12 15 14 11 13 11 9 11 10 8 8 6 6 8 8
9 12 11 12 16 14 19 30 33 36 40 45 48 44 37 38 39 36 35 36 30 19 16 21 22 18 14 14 15 15 13 13 12 12 16 18 14 9 6 6 8 7
11 11 10 11 13 13 15 19 22 27 29 34 45 44 38 43 47 41 38 38 35 30 22 19 24 26 19 15 22 25 18 13 12 12 16 20 16 9 7 7 6 6
16 12 11 11 10 12 12 13 16 20 22 25 29 31 39 50 51 44 44 42 35 31 26 22 30 35 22 11 18 30 26 17 15 16 16 18 14 9 7 7 7 6
16 13 11 11 12 15 15 11 12 16 18 21 20 20 30 46 50 45 47 48 40 35 32 29 34 38 27 12 10 20 27 21 16 17 19 17 13 9 7 7 6 6
12 12 10 11 13 17 16 10 9 13 13 17 20 19 22 29 35 40 48 47 38 35 35 31 29 28 25 19 13 16 25 25 18 16 18 17 13 9 7 7 7 7
15 13 10 10 10 11 13 11 10 11 9 11 15 17 21 23 23 32 46 43 32 33 36 34 35 32 26 23 19 16 20 22 18 13 13 14 11 9 7 7 8 7
29 23 16 13 11 10 10 10 10 10 10 11 11 11 15 19 20 27 40 41 35 33 31 32 39 39 32 31 28 21 18 17 14 9 8 8 6 7 9 9 10 11
41 38 33 26 20 14 10 10 9 9 11 11 11 12 13 13 17 24 32 39 39 34 31 34 38 37 34 34 30 27 28 27 17 8 7 7 6 8 7 8 11 11
52 59 59 47 30 18 12 9 5 6 13 16 14 14 13 8 8 13 21 32 38 35 35 37 40 42 40 35 29 30 37 41 29 14 8 5 6 7 4 12 22 18
54 64 69 61 47 36 28 21 16 15 16 14 11 13 17 16 14 13 14 18 25 31 35 36 40 47 47 40 36 35 42 49 40 25 20 14 9 7 6 15 25 20
54 57 61 60 55 53 54 53 54 53 44 31 20 16 20 22 19 15 12 11 15 23 30 33 40 49 49 45 43 41 43 50 43 34 36 31 15 7 6 10 14 12
59 61 62 61 58 58 64 67 69 73 78 75 64 50 42 31 15 8 9 9 9 11 16 24 39 52 51 45 45 45 43 43 39 37 39 37 32 29 17 7 9 10
66 66 66 68 70 70 71 73 73 73 76 80 81 83 83 69 46 35 33 27 19 13 10 11 19 34 44 44 44 47 43 36 34 35 34 35 48 51 28 11 17 16
82 76 73 76 82 85 85 88 88 83 77 74 77 86 97 95 83 74 71 66 61 53 42 31 20 16 23 28 30 36 40 34 29 30 31 29 35 37 29 30 43 40
93 88 86 89 94 97 96 95 92 89 87 87 89 90 94 97 97 94 92 92 93 87 80 76 67 53 40 30 21 20 26 25 20 23 30 31 28 26 28 33 37 46
87 90 92 93 94 93 92 92 93 92 92 94 97 98 97 96 95 96 97 99 100 98 94 94 97 94 86 74 55 37 29 24 18 20 26 26 27 29 30 28 27 41
73 79 85 87 87 86 84 85 90 95 96 95 96 98 98 98 97 96 97 99 100 99 98 98 99 99 100 100 91 73 60 47 33 26 23 17 20 32 39 36 33 39
54 61 67 72 77 79 78 77 79 85 90 93 94 95 95 97 98 98 99 100 99 98 99 99 100 100 99 100 100 94 88 79 67 58 47 30 19 25 36 38 32 37
48 51 53 56 62 69 72 70 68 70 78 87 92 94 95 95 96 98 99 100 99 100 101 99 98 99 99 99 100 99 98 97 94 91 82 60 35 25 30 32 29 36
56 55 52 49 51 57 63 64 62 62 67 75 82 88 92 95 98 100 100 99 99 99 100 100 99 100 100 100 100 100 99 99 99 99 99 87 66 49 39 31 30 38

ECMWFNIL_500_rhum_111.txt.gz
RH
37 43 52 52 47 49 51 49 45 41 40 37 34 33 28 21 18 14 10 7 6 7 8 9 7 7 8 6 7 10 12 16 18 17 17 17 18 19 20 22 19 19
40 43 49 52 51 52 54 53 50 45 42 42 45 48 40 30 23 17 13 10 7 6 7 9 9 6 6 6 5 6 8 10 11 14 16 15 16 17 17 24 23 18
39 44 50 54 53 54 57 56 52 47 44 44 46 46 43 39 32 22 18 16 11 7 6 8 9 7 6 7 8 8 7 7 7 12 20 18 15 15 16 19 22 20
28 36 44 49 51 55 58 53 50 46 45 45 42 40 40 40 40 35 25 17 14 10 9 10 9 7 6 7 14 15 8 10 9 8 17 21 16 13 13 14 17 20
17 21 28 34 43 51 50 46 46 46 44 42 40 44 45 40 41 46 40 28 20 14 13 14 10 8 9 8 14 18 11 13 15 8 10 16 13 10 10 10 12 13
13 14 17 20 29 38 38 36 38 41 46 44 40 44 47 41 41 45 44 40 33 23 16 18 17 14 13 12 15 18 14 14 16 13 13 14 12 10 9 8 8 9
11 13 14 14 18 23 25 26 26 33 45 46 43 45 46 44 42 40 40 40 40 33 21 19 24 23 20 17 17 20 18 16 15 14 16 19 19 16 11 8 9 9
11 10 12 13 14 15 16 19 18 24 37 41 43 48 50 47 43 41 42 39 40 41 33 26 26 27 27 24 21 24 26 22 16 14 14 18 22 21 13 9 9 8
15 14 14 12 12 12 13 15 15 19 27 31 33 37 46 48 43 44 48 44 43 43 37 33 27 27 36 34 23 26 36 33 23 18 17 18 20 21 16 11 9 8
21 20 20 18 16 14 12 12 14 16 17 20 22 25 34 39 39 48 54 51 50 47 39 35 30 29 41 43 27 20 28 34 30 25 22 21 21 20 17 12 9 8
26 18 17 20 21 17 13 12 13 14 15 17 19 22 25 25 26 39 52 54 53 53 48 41 35 33 37 40 32 20 17 23 30 30 24 21 23 22 18 12 9 8
25 18 15 15 17 15 12 12 14 18 22 20 18 21 24 23 19 24 38 47 50 52 49 40 36 36 34 32 29 24 19 19 24 28 25 20 21 22 18 12 8 8
26 33 34 23 17 17 15 13 13 18 22 18 15 16 17 20 22 22 25 31 38 47 48 40 35 36 37 37 34 28 26 23 20 21 20 16 14 15 13 10 9 10
42 45 49 38 26 26 24 19 14 15 17 16 17 20 19 18 21 22 22 21 27 39 44 39 35 34 35 40 40 34 32 32 27 21 18 13 8 8 8 6 7 9
69 51 45 42 36 34 31 24 18 17 15 13 18 28 33 31 28 29 27 19 18 30 39 40 38 34 32 37 41 38 36 35 32 31 32 27 16 8 9 15 16 12
73 48 39 44 44 44 43 37 29 23 18 13 12 15 21 29 35 38 38 31 22 24 32 38 40 36 35 39 41 42 41 35 32 34 40 44 34 15 13 31 42 35
63 45 42 48 51 56 65 61 45 28 19 15 10 7 14 26 30 30 37 45 40 26 20 28 35 36 39 41 39 41 46 41 38 38 41 48 49 36 26 32 41 42
62 53 48 49 50 59 71 72 60 46 35 27 21 18 19 22 19 15 20 34 43 37 25 24 29 31 34 39 38 41 45 43 39 38 39 43 45 44 42 35 31 41
70 65 59 54 51 54 61 63 62 58 52 48 51 55 51 41 35 32 31 37 53 58 41 23 22 27 30 35 39 41 43 47 45 44 50 58 50 40 43 41 37 49
87 84 78 70 61 56 58 60 59 55 54 56 62 70 76 77 75 72 68 67 70 65 45 24 20 22 19 16 21 24 30 39 43 47 64 82 75 51 39 39 43 54
91 89 88 84 76 68 64 65 64 61 60 64 64 64 71 82 86 85 84 85 80 70 60 56 58 58 46 27 13 12 21 28 27 34 56 75 80 67 45 35 39 47
86 85 88 92 91 82 74 72 74 75 76 78 76 72 74 80 85 84 82 86 88 84 82 87 92 96 91 74 57 53 63 65 54 54 61 63 74 84 64 37 31 36
74 80 86 94 96 94 90 86 86 88 92 93 90 86 84 84 86 88 84 84 88 90 93 99 99 100 101 98 94 93 98 97 88 85 86 80 84 95 83 56 42 38
54 63 72 80 86 90 93 95 97 98 97 95 92 91 93 92 91 93 92 91 92 92 95 99 100 99 100 100 100 97 96 98 98 97 99 98 97 96 89 75 59 45
42 48 54 60 65 68 71 75 82 88 91 91 87 85 89 96 99 99 98 97 98 97 96 98 99 100 100 100 100 96 92 94 99 100 99 100 101 99 95 86 67 49
39 43 46 47 48 50 53 53 53 59 68 78 83 83 84 89 94 96 97 98 99 98 95 96 99 100 99 99 100 99 97 97 98 100 100 99 100 100 100 98 83 64

ECMWFNIL_500_rhum_114.txt.gz
RH
38 41 48 51 46 47 49 44 39 36 34 28 23 23 20 15 13 9 6 6 6 8 9 7 7 10 11 11 13 13 14 17 19 19 20 18 19 19 19 20 22 24
33 40 50 54 49 50 54 52 47 41 38 33 29 29 23 17 16 13 9 6 5 7 8 8 7 7 7 6 7 8 11 14 14 16 18 17 19 20 20 20 20 21
35 40 47 54 53 53 56 57 52 46 42 38 39 41 34 25 20 16 12 9 6 5 6 9 9 7 6 6 6 6 6 8 9 12 17 16 16 17 19 19 18 18
36 41 45 51 56 57 60 60 56 50 47 43 43 43 39 34 30 25 19 13 10 8 5 7 9 7 6 6 9 11 8 7 8 9 15 18 16 14 15 16 18 19
26 33 40 48 55 57 58 61 58 52 49 46 44 40 36 37 37 36 33 23 15 11 8 8 9 7 7 7 10 16 12 9 11 8 9 14 14 12 11 12 14 16
15 21 28 38 46 50 54 59 57 51 48 47 44 40 38 40 39 39 43 39 27 18 12 12 13 9 8 7 9 15 15 11 13 11 9 11 10 8 8 9 9 10
11 13 16 22 28 33 40 48 49 44 44 46 45 41 39 42 42 39 44 46 40 32 22 16 17 16 14 12 11 15 16 14 13 14 13 15 15 13 10 8 7 8
12 11 11 14 16 20 24 30 34 33 33 40 46 45 39 40 43 41 41 41 40 39 33 23 19 20 23 21 17 16 17 15 15 14 14 16 18 18 14 8 6 8
16 13 10 11 12 14 16 17 21 23 24 28 37 43 43 44 47 45 42 41 40 39 39 34 25 20 22 24 22 20 19 20 21 17 14 13 16 18 16 11 8 7
18 19 15 12 11 11 13 14 14 16 18 19 25 35 41 42 46 47 43 42 43 40 40 41 33 23 20 23 28 26 21 24 30 27 20 16 17 18 17 13 10 8
14 19 18 14 11 10 11 12 12 13 14 14 17 24 30 31 35 41 43 45 49 49 46 44 39 29 22 24 32 32 22 18 25 28 26 21 19 20 20 17 12 10
13 24 30 22 15 14 13 12 11 11 11 12 13 16 19 21 23 29 35 40 48 54 54 50 47 41 32 29 31 32 26 18 16 19 24 24 20 17 17 16 14 11
24 52 70 52 26 18 17 15 15 13 10 11 13 15 17 19 22 25 27 27 33 44 52 53 52 48 39 34 32 30 27 22 17 16 18 22 22 19 16 15 13 11
41 66 79 60 34 22 18 15 15 14 12 11 12 16 19 20 21 23 26 25 23 29 38 43 48 49 42 35 35 34 32 29 24 20 17 18 18 15 14 12 11 9
62 60 55 49 44 41 34 25 19 14 11 11 10 14 19 19 17 16 18 21 22 24 28 32 38 46 43 36 33 34 36 36 32 27 26 24 20 19 17 11 9 9
85 67 52 53 58 58 52 41 31 22 16 15 11 10 13 14 13 13 12 13 17 22 24 24 28 38 42 39 35 31 33 36 35 37 43 44 43 44 38 26 21 19
97 81 68 70 72 68 57 45 39 33 26 23 17 13 14 12 10 14 17 16 16 19 23 21 20 26 32 36 38 35 32 31 32 41 53 59 62 65 60 49 44 37
97 88 77 76 77 69 54 42 42 43 40 38 34 25 20 16 13 14 18 19 18 19 22 20 16 18 23 30 37 38 36 35 37 45 52 53 56 63 67 64 57 50
93 89 81 78 77 69 55 43 42 46 51 59 60 48 30 19 14 11 12 20 24 24 24 26 26 24 19 18 23 29 33 36 42 55 62 56 53 59 65 63 56 52
92 89 87 88 84 77 69 59 48 44 49 59 66 63 49 35 26 21 22 26 26 22 21 26 30 30 26 21 19 19 25 30 37 52 63 60 56 61 64 62 60 58
97 94 94 95 91 85 80 70 55 46 45 48 55 59 58 52 47 48 52 51 45 40 36 35 38 47 53 49 32 16 14 20 26 36 48 52 53 59 66 66 64 68
98 97 93 91 88 84 80 73 67 64 61 55 54 57 57 53 52 57 65 71 73 76 75 72 72 75 75 65 45 28 23 25 25 22 22 25 27 34 45 47 47 57
98 95 90 88 88 88 88 87 88 90 87 75 67 65 62 57 53 55 63 71 76 81 86 89 90 88 84 76 65 61 65 69 65 49 30 24 30 39 47 50 54 64
87 86 86 90 92 92 94 97 98 99 100 94 84 74 68 63 56 56 69 79 79 80 85 89 91 91 89 88 85 84 89 96 98 89 77 73 79 83 85 85 86 92
75 80 84 84 79 79 85 91 95 98 101 100 95 84 74 68 63 68 84 93 88 83 86 91 95 95 91 92 93 91 93 97 100 99 98 99 100 99 98 98 97 96
78 82 79 70 60 59 64 68 74 83 89 91 93 89 80 74 76 84 95 97 90 85 88 92 97 99 97 95 93 91 91 96 99 99 99 100 101 100 99 98 98 98

ECMWFNIL_500_rhum_117.txt.gz
RH
32 36 37 34 28 23 25 26 27 26 24 21 18 14 11 7 6 5 5 7 8 8 8 8 10 13 16 16 16 16 17 18 19 19 19 18 17 18 19 21 22 23
35 38 42 45 39 34 35 35 33 31 29 26 21 17 15 12 9 7 6 5 6 7 7 7 6 8 11 12 12 12 13 16 18 18 19 18 18 19 19 20 21 23
34 38 44 50 49 45 46 47 43 38 32 28 23 21 20 16 13 11 9 6 5 5 7 8 7 6 6 6 7 7 8 11 14 15 16 17 17 18 19 19 19 20
31 34 41 50 53 49 49 52 52 46 40 34 29 32 33 27 20 16 12 9 7 6 5 6 7 7 6 5 5 6 6 6 8 10 13 16 15 15 15 16 17 18
28 31 36 44 50 51 50 53 57 55 50 44 38 39 40 35 30 27 22 17 11 8 7 6 7 8 7 6 6 8 10 8 6 7 10 14 16 14 12 12 14 15
22 27 33 39 45 50 51 53 59 61 55 49 46 43 40 36 35 36 34 31 23 15 11 8 7 8 8 6 6 9 13 12 9 9 9 9 11 12 9 8 10 11
13 17 23 31 38 45 49 50 56 59 55 49 48 46 41 37 38 39 37 38 37 30 22 15 11 10 10 9 7 8 12 14 12 12 11 10 12 12 10 9 8 8
10 11 13 18 24 33 42 47 50 53 52 48 46 46 43 38 38 41 39 38 41 41 37 30 22 15 13 13 12 11 11 14 14 13 13 14 15 16 16 14 10 7
13 10 9 11 13 17 25 32 35 39 44 44 41 41 43 42 39 39 40 39 38 39 39 38 33 26 18 16 18 19 17 15 15 15 14 14 14 15 17 16 13 9
19 11 8 9 10 10 13 16 18 23 31 35 33 31 35 41 42 39 39 40 38 37 38 39 38 34 28 21 20 22 21 19 18 19 20 19 15 13 15 16 15 11
26 16 11 10 10 10 10 11 12 14 18 22 23 23 24 31 38 40 40 41 40 39 40 40 39 38 35 30 23 20 22 25 24 22 24 28 25 20 18 18 17 15
29 25 20 15 13 12 11 11 12 12 13 14 15 16 17 19 27 35 38 39 39 40 41 44 44 42 40 35 27 20 22 28 30 24 20 23 26 24 20 19 18 18
26 28 25 19 15 14 12 12 11 11 11 12 12 13 14 14 19 26 29 30 31 34 39 45 50 50 48 44 37 29 25 28 31 26 19 16 18 21 22 21 19 17
24 23 21 17 16 15 14 13 13 13 13 13 11 11 11 12 13 16 18 19 21 23 27 34 43 49 51 49 46 39 32 30 29 27 24 20 16 16 17 17 16 14
24 19 19 16 15 17 20 19 15 15 16 16 14 13 11 11 10 11 12 13 15 17 19 21 26 33 42 45 43 38 33 30 32 35 35 29 23 21 22 23 21 16
44 36 34 25 18 24 38 38 26 19 17 15 15 14 12 11 10 9 11 13 14 16 17 18 18 20 27 31 31 31 30 27 30 37 40 37 34 34 37 38 35 29
72 67 63 51 39 44 56 52 33 24 22 18 17 17 14 12 11 10 11 13 14 14 14 15 15 16 19 21 21 25 30 30 29 30 32 34 37 40 44 46 48 50
85 83 79 74 71 76 79 66 47 41 41 34 28 26 21 17 15 12 11 12 13 12 11 10 11 11 14 17 18 20 25 30 32 31 28 28 33 38 40 42 48 56
93 90 85 85 89 93 92 84 74 70 68 53 38 34 33 29 25 19 12 11 11 11 10 10 12 12 12 16 19 20 21 24 29 33 32 30 32 36 38 40 42 45
95 93 91 93 96 95 93 93 89 85 78 60 43 41 43 43 43 40 30 20 14 11 11 12 14 16 16 17 21 20 19 21 24 28 30 31 33 35 38 42 46 46
91 89 89 93 95 97 99 98 95 92 86 71 56 52 54 55 59 61 54 40 25 15 11 9 9 15 19 22 22 22 25 29 26 20 19 22 26 29 30 35 44 49
92 90 90 92 93 97 100 98 93 92 91 84 75 70 69 71 74 74 69 60 46 33 25 21 19 21 22 22 20 21 26 31 32 33 31 25 21 22 24 26 31 37
98 96 95 95 93 95 99 98 93 90 90 91 90 87 82 83 88 87 78 68 61 55 50 50 52 49 46 45 45 44 43 46 53 62 55 35 20 18 22 24 23 20
99 99 99 99 98 98 100 101 97 95 95 95 96 95 89 88 94 95 84 71 65 62 60 63 67 68 67 69 71 71 70 71 75 78 68 52 43 44 49 53 46 29
97 98 99 99 99 99 101 100 97 96 98 98 96 96 94 94 97 95 83 74 73 72 67 66 68 71 73 75 75 76 79 80 82 82 77 71 73 80 86 90 86 74
95 97 99 99 100 100 100 99 96 94 93 93 94 95 96 98 101 96 86 82 85 86 80 75 76 82 87 87 86 85 87 88 91 91 87 81 83 93 99 100 100 98

ECMWFNIL_500_rhum_123.txt.gz
RH
10 12 11 9 11 14 13 13 14 14 13 10 8 7 6 6 7 8 8 10 11 13 15 16 16 17 18 19 19 19 19 19 19 18 18 18 17 18 19 20 21 22
13 13 12 11 14 16 15 16 17 17 17 15 11 9 7 6 6 7 7 8 9 11 13 13 14 16 17 17 18 18 19 20 20 19 19 19 18 19 20 20 21 22
15 15 17 17 17 18 17 18 19 21 22 20 17 13 11 9 7 6 6 6 7 9 10 10 10 12 14 15 17 17 17 18 18 18 19 20 20 20 20 20 21 21
19 19 21 23 23 23 21 21 22 26 26 24 23 19 16 12 10 8 7 6 6 7 8 8 8 9 9 10 12 14 13 13 12 14 16 18 18 18 18 19 20 19
21 22 24 27 30 31 30 27 28 32 33 30 27 24 21 19 18 13 9 7 7 6 6 6 7 7 7 7 8 8 8 8 8 9 10 12 13 14 16 17 17 17
24 25 26 30 34 38 39 37 35 38 41 39 34 29 26 27 27 23 17 14 12 9 7 6 6 6 7 8 7 6 6 7 9 10 8 8 9 10 11 13 14 13
25 26 29 32 36 40 43 44 44 44 46 47 44 37 33 30 29 28 25 23 22 20 17 12 8 6 6 7 7 7 6 7 10 13 11 10 10 10 10 12 13 11
23 25 29 34 36 39 42 46 49 47 46 50 51 47 42 36 32 30 28 27 28 29 29 25 19 15 11 9 8 7 7 8 9 11 12 13 13 13 14 16 17 17
22 25 28 32 34 35 37 42 48 49 47 49 52 52 50 44 39 35 33 30 28 29 31 31 29 27 23 19 15 11 10 9 10 11 13 14 14 14 16 16 17 17
19 23 27 30 31 31 32 35 41 48 49 48 50 52 52 48 43 42 40 35 30 27 28 29 30 30 29 27 24 19 15 12 11 13 15 15 15 15 15 15 14 15
15 17 20 25 29 29 30 31 34 42 47 50 51 51 53 51 47 45 44 41 36 30 28 28 29 30 29 27 27 25 21 17 14 13 14 15 15 16 18 19 18 17
15 17 16 16 19 22 25 28 31 37 44 49 52 53 55 56 53 49 46 43 40 36 34 31 29 29 29 29 29 27 23 20 16 14 14 14 14 16 17 18 19 19
15 18 19 16 13 13 15 19 24 30 38 45 48 51 55 56 55 53 50 45 40 38 39 38 34 32 29 29 30 29 26 23 18 18 17 16 19 20 18 17 16 15
17 17 18 17 16 14 12 12 14 18 25 32 35 39 44 48 47 46 45 44 39 33 34 38 40 38 34 32 31 29 29 26 23 28 33 32 36 36 32 29 21 12
19 19 19 17 19 22 23 21 18 15 14 16 18 21 25 29 30 29 30 32 31 27 25 27 33 37 36 35 33 30 36 43 44 45 49 50 51 49 44 38 27 15
22 21 21 20 22 28 33 32 31 28 23 18 14 13 13 15 16 17 18 19 20 20 18 18 20 24 28 33 34 31 37 51 54 48 47 50 53 54 51 42 29 23
45 34 27 22 21 26 29 29 28 29 30 28 21 15 12 11 11 13 13 13 14 14 15 15 13 18 31 37 31 25 28 40 49 51 50 49 48 50 50 42 33 31
74 63 52 36 22 17 19 19 18 19 22 25 24 18 15 13 12 12 12 12 13 12 13 14 12 19 38 48 43 35 31 32 39 44 42 37 36 38 40 39 38 36
90 84 79 66 47 31 22 14 11 15 17 19 19 17 16 17 15 14 12 11 12 12 12 14 13 15 24 34 39 37 30 29 32 31 25 22 22 24 27 29 32 34
98 95 91 88 80 66 51 34 21 17 21 27 28 23 19 17 16 18 21 19 14 12 14 15 16 19 20 19 18 17 17 25 32 27 20 18 17 17 20 22 23 27
101 100 95 94 92 84 76 67 51 38 39 48 48 35 23 18 19 28 39 38 26 19 19 17 15 20 24 20 14 10 12 17 20 19 17 16 14 14 16 18 20 22
100 100 97 95 94 89 86 85 79 67 62 65 63 50 37 33 37 44 49 50 48 44 39 30 23 21 24 22 17 15 13 12 13 13 13 14 15 16 16 15 17 20
100 97 95 97 97 95 90 87 89 87 79 74 74 70 64 60 60 62 60 62 70 74 63 47 35 32 32 30 27 24 20 17 15 13 12 13 15 16 17 18 18 18
99 95 95 98 100 99 94 91 94 96 92 89 86 83 84 86 83 77 73 72 78 86 81 66 50 42 40 40 41 43 42 37 29 21 15 13 11 11 14 18 20 20
99 99 98 99 100 98 95 95 98 98 97 99 97 90 92 99 96 86 80 77 80 90 95 87 73 61 54 53 56 62 65 62 54 42 31 24 23 25 26 27 30 35
97 100 101 99 100 98 92 90 95 97 97 100 100 96 96 99 96 92 89 87 89 95 100 99 94 87 80 76 76 78 79 78 73 65 56 49 49 53 56 56 58 63